GEFSGL_500_meanwind_168.txt.gz
Wind_Speed
10 9 9 8 7 6 5 4 3 3 3 3 4 4 4 4 5 5 6 6 6 6 6 7 7 7 7 7 7 8 8 7 8 8 9 9 10 11 12 12 12 12 13
10 10 10 9 8 8 7 6 5 5 5 5 5 5 5 6 6 6 6 7 7 7 7 7 7 7 7 8 8 8 8 8 8 8 9 10 11 11 12 13 13 13 14
11 11 11 10 10 9 9 8 7 7 7 6 7 7 7 7 7 7 8 8 8 8 8 8 8 8 8 8 9 9 9 9 9 10 10 10 11 12 13 13 14 14 15
12 11 12 11 11 10 10 9 9 8 8 8 8 9 9 9 9 9 9 9 9 9 9 9 9 9 9 10 10 10 10 11 11 11 11 12 13 13 14 14 15 16 17
12 12 12 12 12 11 11 11 10 10 10 10 10 10 10 10 10 11 10 10 10 11 11 11 11 11 11 12 11 12 12 13 13 14 14 15 15 16 17 17 18 19 20
13 13 13 14 13 13 12 13 12 12 12 12 12 12 12 12 12 12 12 12 12 12 12 12 12 13 13 13 14 14 15 15 16 17 17 18 18 19 19 20 20 21 22
12 12 14 15 15 15 14 14 15 14 14 14 14 14 14 14 14 14 14 14 14 14 15 15 15 15 16 16 16 17 18 18 18 19 20 20 21 22 22 23 24 24 25
13 14 15 15 15 15 15 15 15 15 16 16 15 15 15 16 16 16 16 16 16 17 17 17 18 18 18 18 19 20 20 21 22 22 23 23 23 25 26 26 27 28 29
15 15 15 15 15 15 15 16 16 17 17 17 17 16 17 17 18 18 18 18 18 18 19 19 20 20 21 21 21 22 23 24 25 26 26 26 27 28 30 30 31 31 32
16 16 16 15 15 16 17 17 17 18 18 17 17 17 17 18 18 19 19 20 20 21 21 21 22 22 23 23 23 24 25 26 27 28 29 30 31 31 32 34 34 35 35
17 16 17 17 17 18 18 18 19 19 19 19 19 19 19 19 20 20 21 21 21 22 22 23 23 24 25 25 26 27 28 29 30 31 32 33 34 35 35 36 37 38 38
18 18 18 18 18 19 20 20 20 20 20 20 20 20 21 21 21 21 21 22 22 23 24 25 25 26 27 28 29 30 31 32 32 33 34 35 36 37 37 38 39 40 40
18 18 19 19 20 20 20 20 20 21 21 21 21 21 21 22 22 22 23 24 24 25 26 26 27 28 29 30 31 33 34 34 35 36 36 38 38 39 39 40 41 42 42
19 19 19 20 20 20 21 21 22 22 22 22 23 23 23 23 24 25 26 26 27 28 28 29 30 31 31 32 34 35 36 37 38 38 39 40 40 41 41 41 42 42 43
19 19 19 20 21 21 22 22 23 23 24 25 25 25 25 26 27 27 28 28 30 30 31 32 32 33 34 35 36 37 38 39 40 40 41 41 42 42 43 44 44 45 45
20 20 20 21 22 22 23 23 23 25 26 27 27 27 28 29 30 30 31 31 32 33 33 34 35 36 37 38 39 39 40 41 42 42 43 43 43 44 45 45 46 46 47
21 22 22 22 23 23 24 24 25 26 26 27 28 29 30 31 32 33 33 34 34 34 35 36 37 38 39 40 41 42 42 43 44 44 45 45 46 46 46 47 47 48 48
22 23 23 24 24 24 25 25 26 27 28 28 29 30 32 32 33 34 34 35 35 36 37 38 39 40 41 42 43 44 44 45 45 46 46 46 47 47 48 48 49 49 50
23 24 25 26 26 26 27 27 28 28 29 30 31 31 33 33 34 35 36 37 38 39 40 41 42 42 43 44 45 45 46 47 47 47 47 48 48 49 49 49 50 51 51
25 26 26 27 27 28 28 29 30 30 31 32 32 33 34 35 36 37 38 39 40 41 42 43 43 44 45 46 47 47 47 48 48 49 49 50 50 50 51 51 51 51 51
27 27 28 28 29 30 30 31 32 33 33 33 34 35 36 37 38 39 40 41 42 43 44 45 45 47 48 48 49 49 50 50 50 50 51 52 52 53 53 53 52 53 53
27 28 28 29 30 30 32 32 33 34 35 36 36 37 38 39 39 40 42 43 44 46 46 47 48 49 50 51 51 52 53 52 52 52 53 53 53 54 53 53 54 54 54
30 30 31 31 32 32 33 33 34 35 36 37 38 39 40 41 42 43 44 45 46 48 49 51 52 52 53 54 54 54 54 54 55 55 55 55 55 55 54 54 54 55 55
32 32 33 34 34 35 36 36 37 38 39 40 41 42 42 43 45 46 48 49 50 51 52 54 54 55 56 56 55 55 55 56 56 56 56 56 56 55 55 55 55 54 54
34 35 35 36 37 37 38 38 39 40 41 42 43 44 45 46 48 49 51 52 53 54 55 56 57 57 57 57 57 57 57 57 57 57 57 57 57 56 56 55 55 55 55
35 36 37 37 38 39 40 40 41 42 44 45 46 47 48 49 51 52 53 55 55 56 57 58 58 58 58 58 58 58 59 59 58 58 58 57 57 57 56 56 55 55 55

GEFSGL_500_meanwind_174.txt.gz
Wind_Speed
9 9 8 7 7 7 6 5 4 3 3 3 3 3 3 4 4 4 4 5 5 5 5 5 5 6 6 5 5 6 6 8 8 8 8 9 10 11 13 13 13 13 14
9 10 9 9 9 8 7 7 6 6 6 6 6 5 5 5 5 6 6 6 6 6 7 7 7 6 6 6 7 7 8 9 10 9 9 10 11 12 14 15 15 15 16
10 10 10 10 10 10 9 8 8 8 7 7 7 7 7 7 7 7 7 7 7 8 8 8 8 7 7 8 9 9 10 10 10 10 12 13 13 14 15 16 17 17 18
11 11 10 11 11 11 10 10 10 9 9 8 8 8 8 8 8 8 8 8 9 9 9 9 9 8 9 10 11 11 12 12 12 13 14 14 15 16 17 18 18 19 19
11 12 12 11 12 12 12 12 12 11 11 11 10 10 10 9 9 10 10 10 10 11 11 10 11 11 11 12 12 13 14 14 15 15 16 17 17 18 18 19 20 21 22
12 12 12 12 12 13 13 13 13 12 12 13 13 12 12 12 12 12 12 12 12 12 12 12 13 13 14 14 15 15 16 16 17 18 18 19 20 20 20 21 22 23 24
12 12 12 12 13 13 14 14 14 14 14 14 15 15 15 14 14 14 14 14 15 15 14 14 15 15 15 16 17 17 18 18 19 20 20 21 22 23 23 25 26 27 28
13 13 13 13 13 14 15 16 16 16 16 16 16 16 16 16 16 16 16 16 16 16 17 17 17 18 18 19 19 19 20 20 21 22 23 24 25 26 27 28 29 30 31
14 14 15 15 15 15 15 16 16 17 17 17 17 17 17 17 18 18 17 17 18 18 18 19 19 20 21 21 21 22 22 23 24 24 25 27 28 29 30 31 32 32 33
15 15 16 16 17 17 17 17 17 18 18 18 18 18 19 19 20 20 19 19 19 20 20 21 21 22 23 23 23 24 25 25 26 27 28 30 30 31 32 33 33 34 35
16 16 16 17 17 18 17 18 18 19 19 19 19 20 20 20 20 21 21 21 21 21 22 23 24 24 25 25 26 26 27 28 28 29 30 31 32 33 34 35 36 37 38
17 17 18 18 19 19 19 19 20 20 20 20 20 20 21 21 22 22 23 23 23 23 24 24 25 25 26 27 27 28 29 30 31 32 33 34 35 36 37 38 39 39 39
18 19 20 20 20 20 20 20 20 21 21 21 22 22 22 23 23 24 24 25 25 25 25 26 26 27 28 29 30 30 32 33 34 35 36 36 37 39 40 41 41 41 41
19 20 21 22 22 21 21 21 22 22 22 22 23 23 23 24 25 25 25 26 26 27 27 28 29 29 30 31 32 33 34 35 36 37 37 38 39 40 41 42 42 43 43
19 19 20 21 21 22 22 22 22 22 23 24 25 25 25 26 26 27 27 28 28 29 29 30 31 32 32 33 35 36 37 38 39 39 40 41 41 42 43 43 44 45 45
19 19 19 20 21 21 22 23 23 24 24 24 25 26 27 27 27 28 29 30 30 31 31 32 33 34 35 36 37 38 39 40 41 42 42 43 43 44 44 45 45 46 46
19 20 21 21 21 22 23 23 24 25 25 25 25 26 27 28 29 29 30 31 31 32 33 34 35 35 36 37 38 39 40 41 43 44 44 45 45 45 46 46 47 47 48
20 21 22 23 23 24 24 25 25 25 26 26 26 26 27 28 29 30 31 32 32 34 34 35 36 37 38 39 40 41 42 43 44 45 45 46 47 48 48 49 49 50 51
21 22 23 24 25 25 26 26 26 26 27 27 27 28 29 30 31 32 33 33 35 36 37 37 38 39 40 42 43 44 45 46 46 47 47 48 49 50 50 51 52 52 53
22 23 23 24 24 24 25 26 27 28 28 28 29 30 31 32 33 34 36 37 37 38 39 40 40 42 43 44 45 46 48 49 49 49 50 51 52 52 53 53 55 55 56
24 24 24 25 25 25 26 27 28 29 30 31 32 33 34 35 36 37 38 38 39 40 41 42 43 45 46 47 49 50 51 51 52 53 54 54 54 55 56 57 57 57 57
24 24 25 26 26 27 27 28 29 30 31 32 33 34 35 36 37 38 39 41 42 43 44 45 47 48 49 51 51 52 52 53 54 55 55 55 56 56 57 58 58 58 58
26 26 27 27 28 29 29 30 30 31 32 33 34 36 37 38 39 40 41 43 44 46 47 48 49 51 52 53 54 54 55 56 56 57 57 57 58 58 59 59 59 58 58
28 28 28 29 29 30 31 32 33 34 35 36 37 38 40 41 42 43 44 45 46 46 48 49 50 52 53 54 55 56 57 58 58 59 59 59 60 60 60 59 59 58 58
30 30 31 32 32 33 34 35 36 37 37 38 39 40 42 43 44 44 45 45 47 48 49 50 52 53 55 56 57 58 59 59 60 60 60 60 60 60 60 60 59 58 58
31 32 33 33 34 35 36 37 37 38 40 40 41 42 43 43 44 45 46 48 49 50 51 52 53 55 56 56 57 58 59 59 59 59 59 59 59 60 59 59 58 58 58

GEFSGL_500_meanwind_180.txt.gz
Wind_Speed
8 8 7 8 8 7 7 6 6 5 5 5 5 4 5 5 5 5 5 5 5 6 5 5 6 6 7 7 7 8 8 8 9 10 10 11 12 12 13 14 15 16 17
8 8 8 9 9 9 8 8 8 7 7 7 6 6 6 6 7 7 6 6 7 7 7 8 8 8 8 9 9 9 10 10 11 12 12 13 14 14 15 16 17 18 19
9 9 9 9 9 9 9 9 9 8 8 9 8 8 8 8 8 8 8 9 9 9 9 9 10 10 10 10 10 11 12 13 13 14 15 15 16 17 17 18 20 21 22
10 10 9 9 10 10 11 11 10 10 10 10 10 10 10 10 10 10 10 10 10 11 11 11 12 11 12 12 13 13 14 15 16 16 17 18 19 19 20 21 22 23 23
11 10 10 10 10 11 11 12 12 12 12 11 12 12 12 12 12 12 12 12 13 13 13 14 14 14 14 14 15 16 16 17 18 19 19 20 21 22 22 23 24 25 26
11 11 11 11 11 12 12 12 13 13 13 13 14 14 14 14 14 14 14 14 15 15 15 15 16 16 16 17 17 18 19 20 20 21 21 22 23 24 25 26 27 27 28
12 12 13 13 13 13 13 13 14 14 15 15 15 16 16 16 16 16 16 16 16 16 16 17 17 17 18 18 19 20 21 21 22 23 23 24 25 26 26 27 28 28 29
13 13 14 14 15 15 14 15 15 15 16 16 17 17 17 18 18 18 18 18 18 19 19 19 19 19 19 20 21 21 22 22 23 24 24 25 26 27 27 28 28 29 29
14 15 15 16 16 15 15 16 16 16 17 17 18 19 19 19 19 19 20 20 20 21 20 20 20 21 21 21 22 22 23 24 25 25 26 27 28 28 29 30 30 31 31
16 16 17 17 16 16 17 17 17 17 17 18 19 19 19 20 20 20 21 21 21 21 22 22 22 23 23 23 23 24 25 26 26 27 28 28 29 30 31 32 32 33 33
16 17 17 17 17 17 18 18 19 19 19 19 20 20 21 21 21 21 22 22 21 22 23 24 24 25 25 26 25 26 27 27 28 29 30 30 32 33 34 35 35 36 36
17 18 17 17 17 18 18 19 19 20 20 20 21 21 21 21 21 22 22 23 23 23 24 25 26 26 27 27 28 28 28 29 30 31 32 33 34 35 36 36 37 38 39
18 18 19 19 18 19 20 20 20 21 21 21 22 22 22 22 22 23 24 24 25 25 26 26 27 27 28 29 29 30 31 32 33 33 34 35 36 37 38 39 40 41 42
19 19 20 20 20 20 21 21 21 22 22 22 23 23 23 23 24 24 25 25 26 26 27 28 28 29 30 31 32 33 33 34 35 36 37 38 39 40 41 41 42 43 43
18 19 19 20 20 21 21 21 22 22 23 23 23 24 24 25 25 26 26 27 28 28 29 29 30 31 32 32 33 34 35 36 37 37 38 39 40 41 42 43 44 44 44
18 19 19 19 20 20 20 21 22 23 24 24 24 24 25 26 27 28 28 28 29 29 30 30 31 31 32 34 35 36 37 38 38 39 40 41 42 43 44 45 46 46 46
18 18 19 19 19 20 21 21 22 23 24 24 24 25 26 27 27 28 29 29 29 30 31 32 33 33 34 35 36 37 38 39 41 42 43 44 44 45 46 47 48 48 48
20 20 20 20 20 21 21 22 23 24 25 26 26 27 27 28 29 29 31 32 32 33 33 34 34 35 37 38 39 39 40 41 43 44 45 46 47 47 48 49 49 50 51
22 22 22 22 22 23 23 24 25 25 26 26 27 28 29 30 31 32 32 33 34 34 35 36 37 38 39 40 41 42 43 44 46 47 47 48 49 50 50 51 52 53 54
23 23 24 24 24 25 25 26 27 28 28 28 29 29 30 31 32 33 33 34 35 36 37 39 40 40 41 42 43 44 46 46 47 48 49 50 51 52 52 53 54 55 56
24 24 25 26 26 26 27 28 28 29 29 29 30 30 31 32 33 35 35 36 37 38 39 40 41 42 43 44 45 46 47 47 48 49 50 52 53 54 55 56 57 58 58
25 25 26 26 27 27 28 28 29 29 30 30 31 33 34 35 35 36 36 37 38 40 41 42 43 44 45 45 46 47 48 49 50 51 52 53 54 55 56 57 58 59 59
26 26 27 27 27 27 28 29 30 30 30 31 33 34 35 36 37 38 38 39 40 41 42 43 43 44 45 46 47 48 49 51 52 53 53 54 55 56 57 58 58 59 59
26 27 27 27 27 28 29 30 30 31 32 33 34 35 37 37 38 39 40 40 41 42 43 44 45 46 47 48 49 50 51 53 53 54 54 55 56 57 57 58 58 58 57
28 28 29 29 29 29 30 31 32 33 34 35 36 37 37 38 38 39 40 41 42 44 45 45 47 48 49 50 50 51 52 53 54 54 55 55 56 56 56 56 56 55 55
30 30 30 31 31 32 33 34 35 36 36 37 38 38 38 39 40 40 41 43 44 45 46 47 49 50 51 51 52 52 53 53 54 54 54 54 55 54 54 54 54 54 54

GEFSGL_500_meanwind_186.txt.gz
Wind_Speed
8 8 8 7 7 6 7 7 6 6 6 6 6 6 5 5 5 5 5 6 6 6 6 6 6 6 7 8 8 9 9 10 10 11 11 12 13 14 14 15 16 16 17
8 8 8 8 8 7 7 7 7 7 7 7 7 7 7 7 7 7 7 7 8 8 8 9 8 9 9 10 10 10 11 12 12 13 13 14 15 15 16 17 18 19 19
9 9 9 8 8 8 8 8 8 8 7 8 8 8 8 9 9 9 9 9 10 10 10 10 10 11 12 12 12 12 13 14 14 15 16 17 17 18 18 19 20 21 22
10 10 10 10 9 9 9 9 9 9 9 9 9 9 9 9 10 11 11 11 12 12 12 12 13 13 14 14 14 14 15 16 16 17 18 18 19 19 20 21 22 23 24
10 10 10 10 10 10 11 10 11 11 11 11 11 11 11 11 11 12 13 13 13 14 14 14 15 15 15 15 15 16 17 18 18 19 19 20 21 21 22 23 24 25 26
10 10 10 10 10 11 11 12 13 13 12 12 12 13 13 13 13 13 14 14 14 14 15 15 16 16 16 17 17 18 18 19 19 20 20 21 22 23 24 25 26 27 28
11 11 11 11 11 11 11 11 12 12 13 13 13 13 14 14 14 14 15 15 15 16 17 17 18 18 18 18 19 20 20 20 21 21 22 23 23 24 25 26 27 27 29
11 11 12 13 13 13 13 13 13 13 14 14 14 14 14 15 16 16 16 16 17 18 18 18 19 19 20 21 21 21 21 22 23 23 24 25 25 26 27 28 29 29 30
13 13 13 13 14 14 14 14 15 15 15 15 16 16 17 17 18 18 19 19 19 20 20 20 20 21 21 21 22 22 23 24 25 25 26 27 27 28 29 30 30 31 32
13 14 14 14 15 15 15 15 15 16 16 16 17 18 18 18 19 19 20 20 21 21 22 22 23 23 23 24 24 24 25 26 27 27 28 29 29 30 31 31 32 33 33
14 14 14 15 15 16 16 16 17 17 17 17 18 19 19 20 20 21 21 22 23 23 24 24 24 25 25 25 26 26 27 28 28 29 30 30 31 32 32 33 34 35 35
15 15 15 16 16 17 17 18 18 18 18 19 20 20 21 21 21 22 23 24 25 25 25 26 26 27 27 27 27 28 29 29 30 31 31 32 32 33 34 34 35 36 37
15 16 16 16 17 17 18 18 18 19 20 21 21 21 22 22 22 23 24 25 25 25 26 27 27 28 28 28 29 30 30 31 32 32 33 33 34 35 36 36 37 37 38
16 16 16 17 17 18 18 18 19 20 20 20 21 21 22 23 23 24 24 25 25 26 27 29 29 29 29 30 30 31 31 32 33 33 34 35 35 36 37 38 38 39 40
17 18 18 18 18 18 18 18 19 19 20 20 21 22 23 23 24 25 25 25 27 28 28 29 30 30 30 30 31 31 32 33 34 34 35 35 37 38 39 40 41 42 43
17 17 18 18 18 18 18 18 18 19 19 21 22 23 23 24 24 25 26 27 28 28 29 29 30 31 31 32 33 34 34 35 35 36 37 38 39 41 42 43 44 45 45
18 18 18 18 19 19 19 19 19 19 20 21 22 23 24 24 25 26 27 27 28 29 29 30 30 31 33 34 35 35 36 37 38 38 40 41 42 43 45 46 46 47 47
19 20 20 19 20 20 20 20 20 20 21 22 23 24 25 25 26 27 27 28 29 29 30 30 32 33 34 36 37 37 38 39 39 41 42 43 44 46 47 48 49 49 50
21 21 21 21 21 21 21 22 22 23 23 24 24 25 26 27 28 28 29 30 31 32 33 33 34 35 36 38 39 39 40 40 41 43 44 45 46 47 48 49 50 50 51
23 23 23 23 23 23 23 24 24 25 26 26 27 28 28 29 30 30 31 32 33 34 35 35 36 37 38 39 40 41 41 41 42 43 44 46 47 48 49 50 51 51 52
24 24 24 25 25 25 25 26 27 27 28 29 29 30 30 31 31 32 33 34 35 36 36 37 38 39 39 40 41 42 42 42 44 45 47 48 49 49 50 50 50 51 51
25 25 26 26 26 26 27 28 28 29 29 30 30 31 32 32 33 33 34 35 36 37 37 38 39 40 41 41 42 42 43 44 45 47 48 49 49 50 50 50 50 51 52
26 27 27 27 27 28 28 28 29 30 30 31 32 32 32 33 33 34 35 36 37 38 39 39 40 41 41 42 43 44 45 46 47 48 48 48 49 49 49 50 50 51 52
27 27 27 27 27 28 28 29 29 30 30 31 32 33 33 33 34 35 36 37 39 39 40 40 41 42 43 44 45 46 46 47 48 48 48 48 49 49 50 50 50 51 52
28 28 28 28 28 29 29 29 30 30 31 31 32 32 33 34 35 36 37 38 38 39 40 41 42 43 44 45 46 47 48 48 48 48 49 49 50 50 50 50 51 51 51
29 29 29 29 29 29 30 31 31 32 32 33 33 34 35 35 36 37 37 38 39 40 41 42 43 44 45 46 47 47 47 47 48 48 49 50 50 49 49 49 49 49 50

GEFSGL_500_meanwind_192.txt.gz
Wind_Speed
6 5 5 5 4 4 5 5 5 5 5 6 6 7 7 8 8 8 8 8 8 9 9 9 9 10 10 10 11 11 12 13 13 13 13 14 15 16 17 17 18 19 19
7 6 6 6 6 6 6 6 6 6 6 7 7 8 8 9 9 9 9 9 10 10 10 10 11 11 12 12 13 13 14 14 15 15 15 16 17 17 18 19 20 21 22
8 8 8 7 7 7 7 7 7 7 7 8 8 8 9 9 9 10 10 10 11 11 12 12 13 14 14 15 15 16 16 16 17 17 18 18 18 19 19 20 21 22 23
9 9 9 8 8 8 8 8 8 8 9 9 9 9 10 10 11 11 11 12 12 13 13 14 14 15 15 16 16 17 18 19 19 20 20 21 20 21 22 23 24 24 24
10 10 10 10 10 9 9 9 9 9 10 10 10 10 10 11 12 13 13 13 14 14 14 14 15 15 16 16 17 18 19 20 21 21 22 22 22 23 24 24 25 25 26
11 11 11 11 11 11 10 10 10 10 11 11 11 12 13 13 14 14 14 15 15 15 16 16 16 16 17 18 18 19 20 21 22 23 23 24 24 24 25 25 26 26 27
11 11 11 11 11 11 12 12 12 12 12 12 12 12 13 14 15 15 15 16 16 17 17 17 18 19 19 19 20 20 21 22 23 24 24 24 25 25 26 26 27 27 28
10 11 11 12 12 12 12 13 13 13 12 13 14 14 15 15 16 16 17 17 17 18 18 18 19 20 20 21 21 22 23 24 25 25 25 26 26 27 27 28 28 29 30
11 11 12 12 13 13 13 14 14 14 15 15 15 16 16 16 17 17 18 18 19 19 19 20 20 21 22 23 24 25 25 26 26 26 27 28 29 29 29 30 30 30 30
12 13 13 13 13 14 14 15 15 15 16 16 17 17 18 17 18 18 19 19 20 21 21 22 22 23 24 25 26 26 27 27 27 28 28 29 29 30 30 31 31 31 32
14 14 14 14 14 15 15 15 16 16 17 17 17 17 17 17 17 18 19 21 22 22 23 24 24 25 26 26 27 28 28 29 29 29 29 30 30 31 32 33 33 34 34
15 15 15 15 15 16 16 16 16 17 17 17 18 18 18 19 19 20 21 22 23 23 24 25 26 26 27 27 28 29 29 30 30 30 31 31 32 33 34 35 35 36 36
16 16 16 17 16 17 17 17 18 18 18 18 19 19 19 20 20 21 22 23 24 25 26 26 27 28 28 29 30 30 31 31 31 32 32 33 33 34 35 36 37 37 38
17 18 18 18 18 18 18 19 19 19 20 19 19 20 20 21 22 23 23 24 25 26 26 27 28 29 29 30 30 31 32 32 32 33 33 34 35 36 37 38 38 39 40
18 19 19 19 19 20 20 20 21 21 21 22 22 22 22 22 23 24 25 26 27 27 28 29 29 30 30 30 31 32 31 32 33 34 34 36 37 38 39 40 41 41 43
18 18 19 20 19 20 20 21 21 21 21 22 22 23 24 24 25 25 26 27 27 27 28 29 29 29 29 29 30 31 32 33 34 35 36 37 38 39 40 41 42 43 44
20 19 19 19 20 20 20 21 21 21 21 21 21 22 23 24 25 25 26 27 28 28 28 29 29 30 30 31 31 32 33 34 35 36 37 38 39 40 41 42 43 43 44
21 21 21 21 21 22 22 22 22 22 22 22 22 23 24 25 26 27 28 28 29 29 30 30 31 31 32 33 34 34 35 36 37 38 38 39 40 41 42 43 44 44 45
23 22 23 23 23 23 23 23 23 23 24 24 24 25 26 27 28 29 29 30 30 31 31 32 33 34 34 35 36 36 37 38 38 39 40 41 42 43 44 44 45 46 47
25 24 24 25 24 24 24 24 24 25 25 26 27 27 28 28 29 29 30 31 32 32 33 33 35 36 36 36 37 37 39 40 40 41 42 43 44 44 45 46 46 47 47
26 26 26 26 26 26 26 26 26 27 27 27 28 29 29 30 31 31 32 32 33 33 34 35 36 36 36 37 38 39 40 41 41 42 43 44 45 45 46 47 47 48 48
27 26 26 26 26 26 26 27 27 28 28 29 30 30 31 32 32 33 34 34 34 34 35 35 36 36 37 38 40 41 41 42 43 44 45 45 46 47 48 48 48 48 48
27 27 27 27 27 27 26 27 28 29 29 30 30 31 31 32 33 34 34 34 34 34 35 36 36 37 39 40 41 42 42 43 44 44 45 45 46 47 48 48 48 48 48
28 28 28 28 28 28 28 29 29 30 31 31 31 32 33 33 34 34 34 34 34 35 36 36 37 39 40 41 42 42 43 44 45 45 46 47 47 47 47 47 47 47 47
29 29 29 29 29 29 30 31 31 31 32 32 32 33 33 34 34 34 34 34 35 36 37 38 39 40 41 41 42 42 43 44 45 46 46 47 47 47 46 46 45 45 45
30 31 31 31 31 31 31 32 32 32 32 32 32 33 34 34 34 35 35 36 37 37 37 38 39 40 41 41 42 42 43 45 46 45 45 45 45 44 44 44 44 44 44

GEFSGL_500_meanwind_198.txt.gz
Wind_Speed
6 5 5 4 4 5 4 4 4 4 4 5 5 5 5 5 6 6 6 7 7 7 7 8 8 8 8 9 10 11 11 12 13 14 14 14 15 15 16 17 18 19 20
7 6 6 6 6 6 6 6 6 6 6 6 6 6 6 6 6 7 7 7 8 8 8 9 9 10 10 11 12 13 13 14 14 15 16 16 17 17 18 19 20 20 22
7 7 7 7 7 7 7 7 7 7 7 8 7 8 8 8 8 8 9 9 9 10 10 10 11 12 13 13 14 14 15 15 16 16 17 18 19 20 21 22 22 23 24
8 8 8 9 8 8 8 8 8 8 8 9 9 9 9 9 9 10 10 10 11 12 13 13 14 14 15 15 15 16 16 17 17 17 18 20 20 21 22 23 23 25 25
9 9 9 9 9 9 9 9 9 9 9 9 10 10 11 11 12 12 12 13 13 14 14 15 15 16 16 16 17 18 18 18 19 19 20 21 22 22 23 23 25 26 26
10 10 10 10 10 10 10 10 10 10 11 11 11 11 12 12 13 14 14 14 14 14 15 15 16 17 17 18 18 19 19 20 20 20 21 22 22 23 24 25 25 26 26
11 10 10 11 11 11 11 12 12 12 12 12 12 13 13 14 14 14 14 14 14 15 16 17 18 18 18 19 19 20 20 20 21 22 22 23 24 24 25 26 27 27 27
11 11 11 12 12 12 13 13 13 13 13 13 14 14 15 15 14 14 15 15 16 17 17 18 18 18 19 20 21 21 22 22 23 24 24 25 25 26 27 27 28 28 29
12 12 12 12 12 13 13 13 13 14 14 15 14 15 15 16 16 16 16 16 17 17 18 19 19 20 21 22 22 23 24 25 26 26 26 27 28 29 29 30 30 30 31
13 14 14 13 13 13 14 15 14 15 15 15 16 16 16 17 17 18 18 18 18 19 20 21 21 22 23 23 24 25 26 27 27 28 28 29 30 30 31 31 32 32 32
14 15 15 14 14 14 14 15 15 16 16 16 17 17 17 17 18 18 18 19 21 21 22 23 23 24 24 24 25 26 27 27 28 28 29 30 31 32 32 32 33 33 34
16 16 16 16 16 15 16 16 17 17 17 18 18 18 18 18 19 19 19 20 21 22 23 25 25 25 25 25 26 27 28 29 29 29 30 30 31 32 33 34 35 36 36
17 17 17 17 17 17 17 17 18 18 18 19 19 19 19 19 20 21 21 22 23 24 24 25 25 25 25 26 26 27 28 28 29 30 30 30 31 32 34 35 36 37 38
18 18 17 17 18 18 18 19 19 19 19 19 20 20 21 21 21 22 22 23 24 24 24 24 24 25 26 26 27 28 29 30 30 30 31 32 33 34 35 35 36 36 38
19 19 19 19 19 19 19 19 20 20 19 20 20 21 21 21 22 23 23 23 23 24 24 24 25 26 27 27 28 29 30 30 31 31 32 33 34 35 36 36 37 38 39
19 19 20 20 20 20 19 19 20 19 20 21 21 22 22 22 23 23 23 23 23 24 24 25 26 27 28 28 29 29 30 30 32 33 34 35 36 36 37 38 39 40 40
20 20 20 20 20 20 19 19 20 20 20 21 22 22 23 23 23 23 24 24 24 25 26 27 28 28 29 29 29 30 31 33 34 35 35 36 37 38 39 40 41 41 42
22 21 21 21 21 21 20 21 21 21 22 22 23 23 23 23 24 25 25 26 26 27 28 28 29 29 30 30 31 32 33 34 35 36 37 38 38 39 41 42 43 43 44
23 22 22 22 22 22 22 22 22 22 23 24 25 25 25 25 25 26 27 27 28 29 30 30 31 31 32 32 33 34 35 36 37 37 38 39 39 40 42 43 43 44 45
24 23 23 23 24 24 24 24 24 24 24 25 25 25 26 26 27 27 28 29 30 30 31 31 32 32 33 34 35 35 36 37 38 38 39 40 41 42 43 44 44 44 45
25 25 25 25 25 25 25 25 25 25 26 26 26 26 26 27 28 29 30 30 31 31 32 33 33 34 34 35 36 36 37 37 38 39 41 42 43 43 44 44 44 44 45
27 27 27 27 27 27 27 27 27 27 27 27 28 28 28 28 29 30 31 32 32 33 34 34 34 35 36 36 37 37 38 38 39 40 42 42 43 43 44 44 44 44 44
27 28 28 28 28 28 28 28 28 28 28 29 29 30 31 31 32 32 33 33 33 34 34 35 35 36 36 36 37 38 38 39 40 41 42 42 43 44 44 44 44 44 44
28 28 29 28 28 29 29 29 29 29 30 30 31 32 32 32 33 33 34 34 34 35 35 35 35 36 36 37 38 38 39 40 41 42 43 43 44 44 44 44 44 44 43
27 28 28 28 28 29 29 30 30 31 31 32 32 32 33 33 34 34 35 35 35 36 36 36 37 38 38 39 39 40 41 41 42 43 44 44 44 44 44 44 44 44 43
29 29 30 30 30 31 31 31 32 32 32 33 33 33 33 34 34 35 35 35 35 36 37 37 38 39 40 40 40 41 41 42 43 44 44 44 44 44 43 44 44 43 43

GEFSGL_500_meanwind_204.txt.gz
Wind_Speed
5 5 5 5 4 3 3 4 4 4 4 5 5 5 5 6 7 7 7 7 7 8 8 8 9 9 10 9 10 11 12 13 13 14 14 15 16 17 17 18 18 18 20
5 6 6 6 6 5 4 4 5 5 5 6 6 6 6 6 7 8 8 8 8 9 9 10 10 10 11 11 12 13 13 14 15 16 16 17 17 18 19 19 20 20 21
6 6 7 7 7 7 6 6 6 6 6 6 7 7 8 8 8 8 9 9 9 10 10 11 11 12 13 14 15 15 15 16 17 17 18 18 18 19 20 20 21 22 23
8 7 7 7 8 9 9 8 8 8 7 8 8 8 9 10 10 10 10 10 10 11 12 12 13 14 15 15 16 16 17 17 18 18 18 19 20 20 21 21 22 23 24
9 9 8 8 8 9 9 9 9 9 10 10 10 10 11 11 12 12 12 12 13 13 13 14 14 15 16 16 17 17 18 18 19 20 20 20 21 21 22 23 24 25 25
10 10 9 9 10 10 10 10 11 11 11 12 12 12 12 12 13 13 13 14 14 14 15 15 15 16 17 17 18 19 19 20 20 21 21 22 22 23 24 25 25 26 27
11 11 10 11 11 11 11 11 12 12 11 12 13 13 14 14 14 14 15 15 15 15 16 16 16 17 17 18 19 20 20 21 21 22 23 23 24 25 26 26 27 27 27
12 12 12 12 12 12 12 13 13 13 13 13 13 13 14 15 15 16 16 17 17 17 17 17 17 18 19 20 21 21 22 23 24 25 25 25 26 26 27 28 28 29 29
13 14 14 14 13 14 14 14 14 14 15 15 14 14 15 16 17 18 18 18 18 19 19 19 20 21 21 21 22 23 24 25 25 26 26 27 27 28 29 29 29 30 30
14 14 14 14 14 15 15 15 16 16 16 16 16 16 17 17 18 18 18 19 19 19 20 20 21 21 22 23 24 24 25 26 26 27 27 28 28 29 29 30 30 31 32
15 15 14 15 15 16 16 17 17 17 17 17 17 17 17 18 18 19 20 20 20 20 20 20 21 22 22 23 24 25 25 26 27 28 28 29 29 30 30 31 31 32 33
16 17 16 16 16 17 17 17 18 18 18 18 18 19 19 19 20 20 20 20 20 20 20 21 22 23 23 24 25 25 26 26 27 28 29 29 30 31 31 32 33 34 35
17 17 17 17 18 18 18 18 19 18 18 19 19 20 20 20 20 19 19 20 21 21 21 22 23 24 24 25 25 26 27 28 28 29 29 30 31 32 32 33 34 35 36
18 18 19 19 18 19 19 19 19 19 19 19 20 20 20 20 20 19 20 21 21 22 22 23 24 25 25 25 26 27 28 29 29 30 30 31 32 32 33 34 35 36 37
21 21 20 19 19 19 19 19 19 19 19 20 20 20 20 20 20 20 22 22 23 24 24 24 25 26 26 27 27 28 29 30 31 32 32 33 33 33 34 35 36 37 38
23 22 21 21 21 20 20 20 20 19 20 20 21 21 21 22 22 23 23 24 25 25 26 26 27 27 28 28 28 29 30 31 33 33 33 34 34 34 35 36 38 39 39
24 24 23 23 23 22 21 21 21 21 22 22 22 23 23 24 24 24 24 25 26 26 26 27 27 28 29 30 30 31 32 33 34 34 34 35 35 36 37 38 39 40 40
25 25 24 24 24 24 23 23 22 22 23 23 24 24 25 25 25 25 25 25 26 26 26 27 28 29 30 31 32 33 34 34 35 35 36 36 37 37 38 39 40 41 41
25 25 25 25 25 25 25 25 24 25 25 25 25 26 26 25 26 26 26 26 26 27 28 29 30 31 32 33 34 34 35 35 36 36 37 37 38 38 39 39 40 40 41
26 26 26 26 26 26 26 25 26 26 26 27 27 27 27 27 27 27 28 28 28 29 30 31 32 33 34 34 34 35 35 36 36 37 37 38 39 40 40 40 40 40 41
27 27 27 27 27 27 26 27 27 28 28 27 27 27 28 28 28 28 29 29 30 30 31 32 33 34 35 35 36 36 37 37 37 38 38 39 40 40 40 40 41 41 42
29 29 29 28 28 28 28 28 28 29 29 29 28 29 29 29 29 29 30 30 31 31 32 33 34 35 36 36 37 37 37 37 38 38 39 40 40 40 41 41 41 42 42
29 30 30 30 29 29 29 29 29 29 29 29 30 30 30 30 30 31 31 31 32 33 34 35 35 36 37 37 36 36 37 37 38 39 40 40 41 41 42 42 42 42 43
30 30 30 30 30 30 30 30 30 30 30 30 30 30 31 31 32 32 32 32 33 34 35 36 37 37 37 36 36 36 37 38 38 40 41 41 41 41 42 42 42 43 43
31 31 31 31 31 31 31 31 31 31 31 32 32 32 32 32 32 33 34 34 35 35 36 36 36 36 36 36 37 37 38 39 40 41 41 42 42 42 42 42 42 42 42
30 31 31 32 32 32 32 32 32 32 32 33 33 33 33 33 33 34 34 35 35 36 36 36 36 36 37 37 38 39 40 41 41 42 42 42 42 42 42 42 42 42 42

GEFSGL_500_meanwind_210.txt.gz
Wind_Speed
6 7 7 6 6 6 6 6 5 5 5 4 4 5 5 6 5 5 6 6 6 7 7 8 8 9 9 9 10 11 12 12 12 13 14 15 16 16 17 17 18 18 19
7 7 7 7 7 7 6 6 6 6 5 5 5 5 5 5 6 6 7 7 7 7 8 9 10 10 11 11 12 12 13 13 14 15 15 16 16 17 17 18 19 19 20
8 9 9 8 8 7 7 7 7 7 7 6 6 6 6 7 7 8 8 8 9 9 10 11 11 12 13 13 14 15 15 15 16 16 17 17 17 18 18 18 19 20 21
10 10 10 10 9 9 9 8 8 8 8 7 8 8 8 8 9 10 9 10 10 10 11 12 13 14 15 15 16 16 17 17 17 17 18 18 19 20 20 21 22 23 24
10 10 11 11 11 10 10 10 9 9 8 9 9 10 10 10 10 11 11 11 12 12 13 13 14 15 15 16 16 17 17 17 17 18 18 19 20 21 22 23 24 25 26
11 11 12 12 11 11 11 11 11 11 10 11 12 12 11 12 12 12 13 13 14 14 14 14 15 15 16 16 17 17 18 18 18 18 19 20 21 21 23 24 25 25 26
12 12 12 12 12 12 12 12 12 12 12 13 14 14 14 14 14 15 15 15 15 15 15 16 16 16 17 17 18 18 18 18 19 19 20 21 22 23 24 25 25 26 27
13 13 13 13 13 13 12 13 13 13 13 13 14 15 15 16 16 16 16 16 16 16 15 16 17 17 18 18 18 18 18 19 20 21 22 22 23 24 25 26 27 28 28
14 14 14 14 14 14 14 14 14 14 14 15 15 15 16 16 16 17 17 16 16 16 16 17 17 18 18 18 18 19 19 20 21 22 23 24 25 26 27 28 28 29 30
15 16 15 15 16 16 16 16 15 15 16 16 16 16 16 16 16 17 17 16 16 17 17 18 18 18 19 19 19 20 20 21 22 23 25 26 27 27 28 29 30 31 31
17 17 17 17 17 17 18 17 17 17 17 17 17 16 16 16 17 17 17 17 17 17 18 19 19 19 20 20 21 21 22 23 24 25 26 27 27 28 28 29 31 31 32
18 18 18 18 18 18 19 19 18 18 18 17 17 17 18 18 17 17 17 18 18 19 20 20 20 20 21 22 22 22 23 24 25 27 27 27 28 28 29 30 31 32 32
20 20 20 20 20 20 19 20 19 19 19 19 18 18 18 19 18 18 18 19 19 20 20 20 21 22 22 23 23 24 25 26 27 27 27 28 28 29 30 30 31 32 33
21 21 21 22 21 21 21 20 19 19 19 20 20 19 19 19 19 19 19 20 20 20 21 22 23 24 25 26 26 26 26 27 28 28 29 29 29 30 31 32 33 34 35
21 21 21 22 22 22 21 20 20 19 20 20 20 20 20 20 20 21 21 22 22 23 24 24 24 25 26 26 26 27 27 27 28 28 29 29 30 32 33 34 35 35 35
22 23 23 23 23 23 22 22 22 22 22 21 21 21 21 22 22 22 23 23 24 24 25 25 25 25 25 26 27 27 28 28 28 29 30 31 32 33 34 35 36 36 37
24 24 25 24 24 24 24 24 24 24 24 23 23 23 22 22 23 24 24 24 24 24 25 25 25 25 26 26 27 27 28 29 29 30 31 32 33 34 35 36 36 36 37
24 25 24 24 25 25 26 26 26 25 24 24 24 24 24 23 24 24 24 24 24 25 25 26 26 26 27 27 29 29 30 30 31 31 32 33 34 35 36 36 36 37 37
25 25 25 25 26 26 26 27 27 27 26 26 26 26 26 25 25 25 25 25 25 25 26 26 27 28 29 30 31 31 31 32 33 34 34 34 35 36 36 37 36 36 37
26 27 27 27 27 27 28 28 28 28 28 27 27 27 27 26 26 26 26 26 27 27 28 29 29 29 31 31 32 32 33 34 35 35 35 36 37 37 37 37 37 37 36
28 29 29 29 29 28 28 29 29 29 29 28 28 28 29 29 28 28 28 28 29 29 30 31 31 31 31 32 33 33 34 35 35 35 36 36 37 37 37 37 37 37 37
30 29 30 30 29 30 29 29 30 30 30 30 31 31 30 30 30 30 30 30 30 31 31 32 32 32 32 33 33 34 34 35 35 36 36 36 37 37 38 38 38 37 38
30 29 29 29 30 30 30 30 30 30 31 32 32 32 31 31 30 30 31 32 31 31 32 32 32 33 33 34 35 35 35 35 36 37 37 36 36 37 38 37 37 37 38
30 30 30 31 31 31 31 31 31 32 32 32 32 33 32 32 32 32 32 32 32 32 32 33 34 34 35 35 36 36 36 36 37 37 36 36 36 37 38 37 37 38 38
30 31 31 32 31 31 32 32 32 32 32 32 33 33 33 33 33 33 33 33 33 33 33 33 34 34 34 35 36 36 36 37 37 37 37 37 38 38 38 37 38 38 38
31 32 32 32 32 33 33 33 33 33 34 34 34 35 35 35 35 35 34 34 34 34 34 34 34 34 35 35 36 36 36 37 37 38 38 38 38 38 38 37 37 38 39

GEFSGL_500_meanwind_216.txt.gz
Wind_Speed
9 9 9 8 8 8 8 7 7 7 7 7 7 7 7 7 7 7 8 8 8 8 8 9 9 9 10 10 11 11 12 12 13 14 14 14 15 16 16 17 17 18 19
9 9 9 8 8 8 8 8 7 7 7 7 7 8 7 7 8 8 8 8 9 9 9 10 10 11 11 11 12 12 13 14 14 15 15 16 16 16 17 18 18 19 20
10 9 9 10 9 9 9 8 8 8 8 8 8 8 8 8 9 9 9 10 10 11 11 12 12 12 13 13 13 14 14 15 15 16 16 16 17 17 18 19 19 20 21
11 10 11 11 11 10 9 9 9 9 9 9 9 9 9 10 10 10 11 11 12 12 13 13 13 13 14 14 14 15 15 15 16 16 16 17 17 18 19 19 20 21 22
11 12 11 12 12 11 10 10 10 10 10 10 10 10 11 11 11 12 13 13 14 14 14 13 13 14 14 15 15 15 15 16 16 17 17 18 19 19 20 21 21 22 22
13 13 13 13 12 12 11 11 11 12 12 11 11 12 12 12 13 13 14 14 14 14 15 15 15 15 15 15 16 16 16 17 18 18 19 19 21 21 21 22 22 23 24
14 14 14 14 13 13 13 13 13 13 13 13 13 14 14 14 14 15 15 15 15 15 15 16 16 16 16 16 17 17 18 19 20 20 20 21 22 22 23 23 24 24 25
15 16 16 15 14 14 14 14 14 15 15 15 15 15 15 16 16 16 16 16 16 16 17 17 17 17 17 17 18 19 20 20 20 21 21 22 23 23 24 25 25 26 27
16 16 16 16 16 16 16 16 15 16 16 16 16 16 16 17 17 17 17 17 16 16 17 17 18 18 18 19 20 20 20 20 20 21 22 22 24 24 25 26 27 27 28
17 17 17 17 17 17 17 17 17 17 17 17 17 17 17 17 17 18 18 17 17 17 18 19 19 19 19 20 20 21 21 21 21 22 22 23 24 25 26 27 28 28 29
19 19 18 18 19 19 19 19 19 19 19 19 19 19 19 19 18 18 18 18 19 20 19 19 19 20 20 21 21 22 22 23 23 24 24 24 25 26 27 28 29 29 30
20 20 19 19 20 20 20 20 21 21 21 21 20 20 20 20 20 19 19 20 20 20 20 20 20 21 21 22 23 24 24 24 24 25 26 25 25 26 27 28 29 30 31
21 21 21 21 21 21 21 22 22 22 23 23 22 22 21 21 20 20 21 21 21 21 21 22 22 23 23 23 24 25 25 25 26 26 26 27 27 28 28 29 31 31 32
22 22 22 22 23 23 23 23 24 23 23 24 23 23 22 22 22 22 22 22 23 23 24 24 24 24 24 25 25 25 26 26 26 27 27 28 29 29 29 30 30 31 31
22 22 23 23 24 24 24 24 24 25 24 24 24 24 24 23 23 24 24 24 25 25 25 26 25 25 25 25 25 26 26 26 27 27 28 28 29 30 29 30 30 31 31
23 23 24 24 25 25 24 25 25 26 26 26 26 27 27 26 25 25 25 25 25 25 26 26 26 26 26 26 26 26 26 27 28 28 29 30 30 30 29 29 30 31 32
25 24 24 24 25 26 26 26 26 26 26 26 26 27 27 27 27 26 26 26 26 26 26 25 26 26 26 26 27 27 28 28 29 30 30 30 30 30 30 31 32 33 33
26 25 25 25 25 26 26 26 26 26 27 27 27 27 28 29 28 28 28 28 28 27 27 27 26 27 28 28 28 28 29 30 30 30 30 31 31 31 32 32 33 34 34
27 27 26 26 26 26 26 26 26 27 28 28 28 28 29 30 30 29 29 29 28 28 28 28 28 29 30 30 30 30 30 31 31 32 32 32 32 33 33 33 34 34 34
28 28 28 28 28 27 27 27 27 28 28 28 29 29 30 30 30 30 30 30 30 30 30 30 30 30 31 32 32 33 33 33 32 32 33 33 34 34 34 34 34 34 34
29 29 29 29 29 29 29 29 28 29 29 29 30 30 31 31 31 31 32 32 32 32 32 32 32 32 33 33 34 34 34 34 34 34 34 34 35 35 35 35 35 35 35
30 30 30 30 30 30 30 30 30 30 30 31 31 31 32 32 32 32 32 32 32 32 33 34 34 34 34 34 34 34 34 35 35 34 35 35 35 35 35 35 35 36 36
31 31 31 32 32 32 32 32 32 31 32 32 32 32 32 32 32 32 33 33 33 34 34 34 35 34 34 34 35 35 35 35 35 35 35 35 35 36 36 36 36 37 37
33 33 32 32 33 33 32 33 33 33 33 33 33 33 33 32 33 33 34 34 35 35 35 35 35 35 35 36 36 36 36 36 36 36 36 36 36 37 37 37 37 38 38
34 34 34 34 34 34 34 34 34 34 34 34 34 35 35 35 35 35 35 36 36 36 36 37 37 36 37 37 37 38 38 38 38 37 37 38 38 38 38 38 38 39 39
35 35 35 35 35 34 34 34 34 34 34 35 35 36 36 36 36 36 36 37 37 37 37 37 38 38 38 38 38 38 39 39 39 39 39 39 39 39 39 39 39 39 39

GEFSGL_500_meanwind_222.txt.gz
Wind_Speed
9 9 8 7 7 8 7 7 7 7 7 7 8 7 7 7 7 7 7 7 8 8 8 8 8 8 8 8 9 9 9 9 10 10 11 12 12 13 13 14 14 15 15
9 9 8 8 8 8 8 8 7 7 7 7 7 7 7 7 8 8 8 8 8 8 8 9 9 9 9 9 10 10 10 10 11 12 13 13 14 14 14 14 15 15 16
10 9 9 9 9 9 9 8 8 7 8 8 7 8 8 8 8 9 9 9 9 9 9 10 10 10 10 10 10 11 11 12 13 13 14 14 15 15 15 15 16 17 17
11 11 11 11 11 10 10 9 9 9 9 9 9 9 9 10 10 10 10 10 10 11 11 11 11 11 11 11 12 12 13 14 14 14 15 15 15 15 16 17 17 18 19
12 12 12 12 12 11 11 11 11 11 10 10 11 11 11 11 12 12 11 11 11 11 12 12 12 12 13 13 13 14 14 15 15 15 16 16 16 16 17 18 19 19 20
11 12 12 13 12 12 12 12 12 12 12 12 12 12 12 12 13 13 13 13 13 13 13 13 13 13 14 14 14 15 16 16 17 17 17 17 18 18 19 19 20 21 22
13 12 13 14 14 14 14 14 14 14 13 14 14 14 14 14 14 15 15 15 15 14 14 14 14 14 14 15 16 16 17 18 18 19 19 19 20 20 21 21 22 23 24
14 14 14 15 16 16 16 15 15 15 15 15 15 15 15 16 16 17 17 17 17 17 16 16 16 16 16 17 17 17 18 18 19 19 20 20 21 21 22 22 22 23 24
15 15 15 16 16 17 17 17 17 16 16 17 17 17 17 17 17 17 17 18 18 18 17 17 17 17 17 18 18 19 19 20 20 20 21 21 22 22 22 22 22 23 25
15 15 16 16 16 16 17 17 18 18 17 18 18 18 18 18 18 18 18 18 18 19 19 19 18 18 19 19 20 20 20 21 21 21 21 22 23 23 24 24 24 25 26
16 16 16 16 17 17 17 18 18 18 18 19 19 19 19 19 19 20 20 20 20 21 21 20 20 20 20 20 21 21 22 22 22 22 22 23 23 24 25 25 26 27 28
17 18 18 17 18 17 18 18 19 19 19 20 20 20 21 21 21 22 22 22 22 22 22 22 22 22 22 22 23 23 23 23 23 23 24 24 25 26 26 27 27 28 29
19 19 19 19 19 19 19 19 20 21 21 21 22 22 23 23 22 23 23 23 23 24 24 24 24 24 24 24 24 24 24 24 24 25 25 26 26 26 27 28 28 29 29
20 20 20 20 20 20 20 21 21 22 22 22 23 23 23 24 24 24 24 24 25 25 26 26 26 26 25 26 26 25 25 25 25 25 26 27 27 27 28 28 28 29 30
22 22 22 22 22 22 22 22 23 23 24 24 24 24 24 24 24 25 25 26 26 26 26 26 26 26 26 26 26 26 26 27 27 27 27 27 28 29 29 29 30 30 31
24 24 24 23 24 24 24 24 25 25 26 26 26 25 25 25 25 26 26 27 27 27 27 27 27 27 27 27 27 27 27 27 28 28 28 29 29 30 30 31 31 31 31
26 26 26 26 25 25 25 26 26 26 27 27 27 27 26 26 26 27 27 28 29 29 29 29 29 29 28 28 28 28 28 28 28 29 29 29 30 30 31 31 32 32 32
27 27 27 27 27 27 27 27 28 28 29 29 29 28 28 28 28 28 29 29 29 30 30 30 29 29 30 30 29 29 29 29 30 30 30 30 31 31 32 32 33 33 33
29 29 29 28 29 29 29 29 29 30 30 30 30 30 30 31 31 30 30 30 30 30 30 30 30 31 31 31 31 31 30 31 31 32 32 32 32 33 33 33 34 33 33
30 30 30 30 30 31 31 32 32 32 32 32 32 32 32 33 33 32 32 32 31 31 31 31 31 31 31 31 32 32 32 32 32 33 34 34 34 34 34 34 34 33 33
31 31 31 31 32 33 33 33 33 33 33 32 32 32 33 33 33 33 33 33 33 33 33 33 33 33 33 33 33 32 33 34 34 34 35 35 36 35 35 35 34 34 34
32 32 33 33 33 33 33 33 33 33 32 32 32 32 33 33 33 33 34 34 34 34 34 34 35 35 35 35 35 35 35 34 34 35 35 36 36 36 36 36 36 35 35
34 34 34 34 34 34 34 34 34 33 33 32 32 33 33 33 33 33 34 34 35 35 35 35 36 36 36 36 36 36 37 37 37 37 37 37 37 37 37 37 37 37 37
35 35 35 35 34 33 33 33 33 33 33 33 33 33 34 34 34 34 34 34 35 35 36 36 36 36 36 36 37 37 37 37 38 38 38 37 37 38 38 38 37 37 38
36 36 35 34 33 32 32 32 32 32 33 33 33 34 34 35 35 34 34 34 34 34 35 36 36 36 36 37 37 37 38 38 37 38 38 37 37 37 38 38 37 37 38
36 36 35 34 34 33 33 33 33 33 34 34 35 35 35 35 35 35 34 34 35 35 36 37 37 37 37 38 38 38 39 39 39 39 39 39 38 38 38 38 38 38 38

GEFSGL_500_meanwind_228.txt.gz
Wind_Speed
9 9 9 9 10 10 10 9 9 9 9 9 10 10 10 10 10 10 10 10 10 10 10 10 10 10 11 11 11 10 10 10 10 10 11 11 11 12 13 14 15 16 16
11 10 10 11 11 11 11 10 10 10 9 9 10 10 10 10 11 11 11 11 11 11 11 11 11 11 11 11 12 12 11 12 12 12 12 12 13 14 15 15 16 16 16
12 12 12 12 12 12 12 11 11 11 10 10 10 11 11 11 11 12 12 12 12 12 12 12 12 13 12 12 13 13 13 13 13 13 13 14 14 15 16 16 16 17 17
13 13 13 13 13 13 12 12 11 11 11 11 11 12 12 12 12 13 13 13 13 13 13 13 13 14 14 14 14 14 14 14 14 14 14 15 16 16 17 17 18 19 19
14 14 13 13 13 13 13 12 12 12 12 12 13 13 13 13 14 14 14 14 14 14 14 14 14 15 15 16 16 16 17 16 16 16 16 16 17 17 18 19 20 20 21
14 14 14 13 13 13 13 13 13 13 13 13 14 15 15 16 16 15 15 16 15 15 15 15 16 17 17 18 18 18 18 18 18 18 19 19 18 19 20 20 21 22 22
15 14 14 14 14 13 13 13 13 13 14 14 15 15 16 16 16 16 16 17 16 16 16 17 17 18 19 19 19 19 19 19 19 20 20 20 20 21 21 22 22 23 24
15 15 14 14 14 14 13 13 14 14 14 15 15 16 16 17 17 17 17 17 17 17 18 18 19 19 20 20 20 20 21 21 22 22 22 22 22 22 23 23 23 23 24
16 15 15 15 15 15 15 15 15 15 16 16 16 16 16 17 18 19 19 19 19 19 19 20 20 20 20 20 21 21 21 22 23 24 24 24 24 24 24 24 24 24 24
17 16 16 16 16 17 17 17 17 18 18 18 17 18 18 18 19 20 20 20 21 21 21 21 21 21 21 22 22 23 22 22 23 24 24 25 25 25 25 25 25 25 26
18 17 17 17 18 18 19 19 20 19 19 19 19 20 20 20 21 21 21 21 21 22 22 22 21 22 22 23 23 24 24 24 23 23 24 25 25 26 26 26 27 27 27
19 19 19 19 20 20 20 20 20 20 20 21 21 21 22 22 22 22 22 22 23 24 23 23 22 23 23 24 24 25 25 25 25 25 25 25 25 26 27 28 28 29 29
21 21 21 21 22 21 21 22 22 21 21 22 23 23 23 23 23 22 22 23 23 24 24 24 24 25 24 24 25 26 26 26 25 25 25 25 25 26 27 28 29 30 30
22 22 23 23 22 22 23 23 23 23 23 24 24 25 25 25 25 25 25 25 25 25 25 26 26 26 26 26 26 27 27 27 26 26 26 26 26 27 27 29 30 30 30
24 24 24 24 23 24 24 24 24 24 25 26 26 26 26 26 27 26 27 27 27 27 27 27 27 28 28 28 28 28 28 28 27 27 28 28 28 28 28 29 30 31 31
25 25 25 25 25 26 26 26 26 26 26 27 27 28 28 28 28 28 28 28 29 29 29 29 29 29 29 29 29 29 29 29 29 29 29 29 29 29 29 30 31 31 31
26 26 26 26 27 27 28 28 28 28 28 29 29 29 30 30 30 30 31 31 31 32 31 31 30 31 31 31 30 30 30 31 31 31 30 30 30 30 31 31 31 32 33
28 28 28 28 29 29 29 30 30 30 30 30 30 31 32 32 32 32 32 32 32 32 32 32 32 32 32 31 31 31 31 32 32 32 32 31 32 32 32 33 33 33 34
29 30 30 30 31 31 31 31 31 31 31 32 32 32 33 33 33 33 33 33 33 33 33 33 33 33 33 33 33 33 33 33 32 33 33 33 33 33 34 34 35 35 35
31 31 32 32 32 32 32 32 32 33 33 33 33 33 33 33 33 33 33 33 33 33 33 33 33 34 34 35 35 35 35 34 34 34 34 35 35 35 35 35 36 36 36
32 32 32 33 33 33 33 33 33 33 33 33 33 33 33 33 32 33 33 33 33 33 33 33 33 33 34 35 36 36 37 36 36 36 36 36 37 37 37 38 38 37 37
32 33 33 33 33 34 34 33 34 34 33 33 33 32 32 33 33 34 34 34 34 34 34 34 35 35 35 35 35 35 36 37 37 37 37 38 38 39 39 39 39 39 39
35 35 34 35 35 36 36 36 36 36 35 34 34 34 33 34 35 35 36 35 35 35 35 35 36 36 36 36 37 36 36 36 37 38 39 40 40 40 40 40 40 39 39
37 36 36 37 37 37 38 38 37 37 36 36 35 35 35 35 35 36 36 36 36 36 36 36 37 37 37 37 37 37 38 38 38 38 40 40 41 41 40 40 40 40 40
38 38 38 38 38 38 38 38 38 37 36 36 36 36 36 36 36 36 37 37 37 37 37 37 37 38 38 38 38 39 40 40 40 40 39 40 41 40 40 41 41 41 40
39 39 40 40 39 39 39 38 38 38 37 37 37 37 38 38 38 38 37 37 37 37 38 38 38 39 39 39 39 39 40 41 41 41 41 41 41 40 40 40 40 40 40

GEFSGL_500_meanwind_234.txt.gz
Wind_Speed
9 10 10 10 10 10 10 10 10 10 10 10 10 11 11 11 11 11 12 12 12 12 13 13 13 13 12 12 13 12 12 12 13 13 13 13 13 13 13 14 14 15 15
11 11 11 11 11 11 11 10 10 10 10 11 11 12 12 13 13 13 13 14 13 13 13 14 14 14 13 13 13 13 13 13 13 13 13 14 14 14 14 15 16 16 17
13 12 11 12 11 11 11 11 11 11 11 11 11 12 12 13 13 14 14 15 15 15 15 15 15 15 15 15 14 14 15 15 15 15 15 16 16 16 16 16 17 17 18
13 13 12 12 12 12 12 12 11 11 11 12 12 12 12 13 13 14 15 15 15 15 15 15 16 16 16 16 16 16 16 16 16 16 16 17 18 18 19 19 19 19 19
14 13 13 12 12 12 13 13 13 12 12 12 13 13 13 14 14 14 15 16 16 16 16 16 16 17 17 17 17 17 17 17 18 17 17 18 19 20 20 21 21 21 21
14 14 14 14 14 14 14 14 14 14 14 14 14 14 15 15 15 15 16 16 17 17 17 17 17 18 18 19 18 18 18 19 19 19 20 20 20 21 21 22 22 22 22
15 15 15 15 15 15 15 16 15 16 16 16 16 16 16 16 16 16 16 17 17 18 18 18 18 19 20 19 19 19 19 20 20 20 21 21 21 21 22 22 22 23 23
16 16 16 16 16 17 17 17 17 17 18 18 18 17 17 17 17 17 18 19 19 18 18 19 19 20 20 20 20 21 21 21 21 22 22 22 22 23 23 23 23 23 24
17 17 17 18 18 19 19 19 19 19 19 19 19 18 18 18 19 20 20 20 20 20 20 21 21 22 21 22 22 22 23 23 23 23 23 23 23 23 23 23 24 24 24
19 19 19 20 20 20 20 21 21 20 20 20 19 18 19 19 20 21 21 21 21 22 22 22 23 23 23 23 23 23 23 23 23 24 24 25 25 25 25 25 25 24 24
20 20 21 21 22 21 21 21 21 21 21 20 20 20 20 21 21 22 22 22 22 23 24 24 24 24 24 24 25 24 24 24 25 25 25 26 26 26 26 26 26 25 25
21 21 21 21 22 23 22 23 23 23 22 21 21 22 22 22 22 22 23 23 24 25 25 26 26 26 26 26 26 26 26 26 26 26 26 26 27 27 27 27 27 26 26
22 22 22 22 22 23 23 23 24 24 23 23 23 23 24 24 24 24 25 25 26 27 27 27 27 27 27 27 28 28 27 27 28 27 27 27 27 27 27 28 28 27 27
23 22 22 22 23 23 24 24 24 25 25 24 25 25 25 26 26 26 27 27 28 28 29 29 28 28 28 29 29 29 29 28 28 28 28 29 29 28 28 28 29 29 29
23 23 24 24 24 24 24 25 26 26 26 26 26 26 26 27 27 28 29 29 30 30 30 30 29 29 29 29 29 29 29 29 28 28 28 29 29 29 29 29 29 29 30
24 24 25 25 25 26 26 26 26 26 27 27 27 27 27 27 28 29 29 30 31 31 31 30 30 29 29 29 29 28 29 29 29 29 29 30 30 30 30 30 30 31 32
25 25 26 26 26 26 26 26 26 27 28 28 28 28 28 28 28 28 29 30 31 31 31 30 29 30 29 29 29 29 29 29 30 30 31 31 31 31 31 32 32 33 33
26 27 27 27 28 28 28 27 27 28 28 28 29 29 29 29 30 30 30 31 31 31 31 30 30 30 30 30 30 30 30 31 31 32 32 32 32 33 33 33 34 34 34
28 29 29 29 29 29 29 29 29 29 29 30 30 30 30 31 31 32 32 32 32 31 31 31 31 31 31 31 31 32 32 32 33 33 33 33 34 34 35 35 35 36 36
31 31 31 31 31 31 31 31 31 31 31 30 31 31 32 33 33 33 33 32 32 32 32 32 32 32 32 32 32 33 33 33 33 34 34 35 35 36 37 37 38 38 38
33 34 34 34 34 34 34 33 33 32 33 32 32 32 33 33 34 34 33 33 33 33 33 33 33 34 34 34 33 33 34 34 35 35 36 36 36 37 37 38 39 40 39
34 35 35 36 36 36 36 35 34 34 34 34 34 34 34 34 34 34 33 33 33 33 33 33 33 34 35 35 35 35 35 36 36 36 36 37 38 38 38 38 39 39 40
35 36 37 37 37 37 36 37 36 36 36 36 36 36 36 35 35 36 36 35 35 35 34 34 35 35 36 35 35 35 36 36 36 37 37 38 38 39 39 39 39 39 39
36 37 37 38 38 39 38 38 38 37 37 36 36 36 36 36 36 36 37 37 36 36 36 37 37 37 37 37 37 37 38 38 38 38 39 40 40 40 40 40 39 39 39
37 37 38 38 38 38 39 39 39 38 38 37 37 38 38 37 37 37 37 38 38 38 38 39 39 39 38 38 39 39 40 40 41 41 41 41 41 41 41 41 40 40 40
39 39 39 39 39 39 39 39 39 39 38 38 39 39 39 39 38 38 38 38 39 39 39 40 40 39 39 40 41 41 42 42 42 42 42 42 42 42 42 42 42 41 41

GEFSGL_500_meanwind_240.txt.gz
Wind_Speed
11 12 12 12 13 13 13 12 12 12 12 12 12 13 13 13 13 13 13 14 14 14 14 14 14 15 15 15 15 15 14 14 14 14 14 15 15 15 14 14 15 15 15
12 12 13 13 13 13 13 12 12 12 12 12 12 13 13 13 12 12 12 13 14 14 14 15 15 15 15 16 16 16 16 16 16 16 15 16 16 16 16 16 16 17 17
13 13 14 14 14 14 13 13 13 13 13 13 13 14 14 14 14 14 14 14 14 15 15 16 16 17 17 17 17 17 18 18 18 18 17 18 18 18 18 18 18 18 18
15 15 15 14 15 15 14 14 14 15 15 15 15 16 15 16 16 16 16 16 16 17 17 17 18 18 19 19 19 19 19 19 19 19 19 19 19 20 20 20 20 19 20
16 16 16 15 16 15 15 16 16 16 17 17 17 17 17 17 18 18 18 18 18 18 19 19 19 20 20 20 20 20 20 20 21 21 21 21 21 21 21 22 22 21 21
17 17 16 16 16 17 17 17 17 17 18 18 18 18 19 18 18 19 19 19 19 19 19 20 20 21 21 21 21 21 22 22 22 23 23 22 22 22 23 23 23 23 23
16 17 17 17 18 18 18 18 18 19 19 19 19 19 19 19 20 20 21 21 20 20 20 21 21 22 22 22 22 22 22 23 23 24 24 24 23 24 24 24 24 23 23
17 17 18 18 19 19 19 19 19 20 20 21 21 20 20 21 21 22 22 22 22 22 23 22 22 23 23 23 23 23 24 24 24 25 25 24 24 24 24 24 24 24 24
19 18 19 19 19 20 20 21 21 21 21 22 22 21 21 22 22 22 23 23 23 23 23 24 24 24 24 24 24 25 25 25 25 25 25 25 25 25 26 25 25 25 25
20 20 20 21 21 21 21 22 22 21 22 23 22 22 23 23 23 23 24 24 24 24 24 24 24 25 25 25 26 26 26 26 26 26 26 26 27 27 27 26 26 26 26
20 21 21 21 22 22 22 22 22 22 23 23 23 23 24 24 24 24 24 25 25 25 25 25 26 26 26 27 28 27 27 27 27 27 26 27 27 28 27 27 26 27 27
21 22 22 22 22 22 22 23 22 23 23 23 23 24 24 25 25 25 25 25 25 25 26 26 27 27 27 28 28 28 28 28 28 28 27 28 28 28 28 27 27 27 27
23 23 23 23 23 23 23 23 23 23 24 24 24 24 25 25 26 26 26 26 26 26 27 27 27 27 28 28 28 28 28 28 28 28 28 28 28 28 28 27 28 28 28
25 25 25 25 25 25 25 25 25 25 25 26 26 26 26 26 27 27 27 27 27 27 27 27 28 28 28 28 29 28 28 28 28 28 28 29 28 28 28 28 28 28 28
26 26 27 26 26 26 26 26 27 27 27 28 28 28 28 28 28 28 28 28 28 28 29 28 29 29 29 28 28 28 29 29 29 28 28 28 29 28 28 28 29 29 29
27 27 28 28 28 27 27 28 28 28 28 29 30 30 30 30 30 30 30 30 30 30 30 29 29 30 30 30 29 29 30 30 29 29 29 30 30 30 30 30 30 30 30
28 29 29 28 28 28 28 29 30 30 30 30 31 31 31 31 31 31 31 31 31 31 31 30 30 31 31 31 31 31 31 31 31 31 31 31 31 30 31 31 31 31 32
29 29 30 30 30 30 30 30 31 31 31 32 32 33 32 32 32 32 32 32 32 31 32 32 32 32 32 32 32 32 32 32 32 32 32 32 32 32 32 33 33 34 34
31 31 31 32 32 32 32 32 32 33 32 32 33 33 33 33 32 32 32 32 32 32 33 33 33 33 33 34 34 33 33 33 33 33 34 33 33 34 34 34 35 36 36
33 33 34 34 34 34 34 34 34 34 34 34 34 33 33 34 34 34 33 33 33 33 34 34 34 34 34 34 34 34 34 34 34 34 35 35 35 35 35 35 36 37 36
34 34 35 35 35 36 35 35 36 36 36 36 35 35 34 34 34 35 34 34 34 34 34 35 35 35 35 35 35 34 34 35 35 35 36 36 36 36 37 36 36 37 37
34 35 35 36 36 37 37 37 37 38 38 38 38 37 36 36 36 36 36 36 36 36 36 36 36 36 36 36 36 36 37 37 37 37 37 37 38 38 39 38 38 38 38
35 36 36 36 37 37 37 37 38 38 39 39 39 38 38 38 37 37 37 37 37 36 36 36 36 36 37 37 37 38 38 38 39 39 39 39 39 39 40 40 39 40 40
36 36 36 37 38 38 39 39 40 40 41 40 40 40 40 40 39 39 38 38 38 38 38 38 38 38 38 39 39 39 39 39 40 41 40 40 40 40 41 42 42 42 42
36 36 37 37 38 38 39 40 41 41 41 41 41 41 41 41 40 40 40 40 40 40 39 39 39 40 40 40 40 40 41 41 42 42 41 41 42 42 42 43 43 44 44
37 38 38 38 39 39 39 40 41 41 42 42 42 42 42 41 41 41 40 41 40 40 40 41 41 40 40 41 41 41 42 42 43 43 43 43 44 44 44 45 45 45 45

GEFSGL_500_meanwind_246.txt.gz
Wind_Speed
12 12 12 12 12 12 12 12 12 12 12 12 12 12 12 11 11 12 12 12 12 13 13 14 15 15 15 15 15 15 15 15 15 15 15 15 15 15 14 14 14 15 16
13 13 13 13 13 13 13 13 13 13 13 13 13 12 13 13 13 14 14 14 14 14 15 15 15 16 17 17 17 16 16 16 16 16 16 16 17 17 17 17 17 18 18
15 15 14 14 14 14 14 14 14 14 14 14 14 14 14 14 15 16 16 16 16 16 16 16 17 17 18 18 18 17 17 17 17 17 18 18 19 19 19 20 20 20 20
16 16 16 15 15 15 15 15 14 14 14 15 15 15 15 16 17 17 18 18 17 17 17 18 18 18 19 19 19 19 18 19 19 19 19 20 21 21 21 21 22 22 22
16 16 16 17 17 17 16 15 15 15 15 16 15 16 16 17 18 18 19 19 18 18 18 19 19 20 20 21 20 20 20 21 21 21 21 22 22 22 23 23 23 23 23
17 17 17 18 18 18 17 16 16 16 16 16 16 17 17 18 18 19 19 19 19 20 20 20 20 21 21 22 22 22 22 22 23 23 23 23 24 24 24 24 24 24 24
17 17 17 18 17 17 17 17 17 17 17 17 17 18 18 19 19 19 20 20 20 20 21 21 21 22 23 22 23 23 23 24 24 24 24 25 25 26 26 26 26 25 25
17 17 17 17 18 17 16 17 17 16 16 17 18 18 19 19 19 20 20 20 21 21 22 22 23 23 23 23 23 24 24 25 25 26 26 26 27 27 27 27 27 26 25
17 18 18 17 17 17 17 17 17 18 18 18 18 19 19 19 20 20 21 21 22 22 23 23 23 23 23 24 24 25 25 25 26 26 27 27 27 27 27 27 27 26 26
17 17 17 17 17 18 18 18 18 19 19 19 20 20 20 21 21 22 22 22 22 23 23 24 24 24 24 24 25 26 26 26 26 27 27 26 26 26 26 26 27 26 26
18 18 18 18 19 19 19 19 20 20 20 20 20 21 21 21 22 22 22 23 22 23 23 24 24 25 25 25 26 26 26 26 27 27 27 27 27 26 26 26 27 27 27
19 19 19 20 20 21 20 20 21 21 21 21 21 22 22 23 23 23 22 23 24 24 24 24 25 26 27 26 27 27 27 27 28 28 28 27 27 27 27 27 28 28 28
21 21 21 21 22 22 22 22 23 23 23 23 23 23 23 24 25 25 26 26 25 25 25 26 26 27 27 28 28 28 28 29 29 29 28 28 28 28 28 29 29 29 29
23 22 23 23 23 23 23 24 24 24 24 25 25 25 25 26 26 27 27 27 27 27 27 28 28 27 28 28 28 28 28 29 29 29 29 29 29 29 30 30 30 30 30
23 23 24 24 24 25 25 25 26 26 26 26 26 27 27 27 28 28 28 29 29 29 30 29 28 28 28 28 28 28 29 30 30 30 30 30 30 30 31 32 31 31 31
24 24 25 25 26 26 26 27 28 28 28 28 28 29 29 29 29 30 30 30 31 31 31 31 30 30 29 29 29 29 30 30 30 31 31 31 32 32 32 32 33 32 32
25 25 26 26 27 28 28 29 29 29 29 30 31 31 31 31 32 32 32 32 32 32 32 31 31 30 30 30 31 31 31 30 31 31 31 31 32 32 33 33 33 34 34
27 27 28 28 29 29 30 30 31 31 30 31 31 32 33 33 33 34 34 33 33 33 33 32 32 31 32 32 33 33 32 32 32 32 32 32 33 34 34 34 34 34 34
27 28 28 29 30 30 31 31 31 32 32 32 33 34 35 35 35 35 34 34 34 34 34 33 33 33 33 34 33 33 33 33 34 34 34 33 34 35 35 35 35 35 35
28 29 29 30 30 31 32 32 32 33 33 34 34 35 36 36 36 36 35 35 35 35 35 35 34 35 35 35 34 34 34 35 35 35 35 35 35 35 35 36 36 36 36
29 30 30 31 31 32 32 33 33 34 35 36 36 36 36 37 37 37 36 36 36 36 37 37 37 37 37 37 36 36 36 36 36 37 37 37 37 37 37 38 38 38 38
31 31 31 32 32 33 33 34 36 36 37 37 38 38 38 38 38 38 38 37 37 37 37 38 38 38 38 38 38 38 37 37 37 38 38 39 39 39 39 39 39 39 39
32 32 33 33 33 34 34 35 36 37 38 39 39 39 39 40 39 39 39 39 38 38 38 38 39 39 39 39 39 39 38 39 39 39 39 39 40 40 40 40 41 41 41
33 33 34 34 35 35 35 36 37 38 38 39 39 40 40 39 39 39 40 40 39 39 39 39 39 40 39 39 39 40 40 40 41 41 41 41 41 41 41 41 41 42 42
34 34 35 35 36 37 37 37 38 38 39 39 39 39 39 39 39 39 39 39 39 39 39 39 39 40 40 40 41 41 41 41 42 43 43 43 43 43 43 43 43 43 43
36 36 36 37 37 37 37 38 39 39 39 39 39 39 39 40 40 40 40 40 40 40 40 40 40 40 41 41 41 42 42 43 43 43 44 44 45 45 45 45 45 45 46

GEFSGL_500_meanwind_252.txt.gz
Wind_Speed
13 13 13 13 13 13 13 14 14 14 15 15 15 15 15 14 14 15 15 15 15 16 16 17 17 18 18 18 18 18 18 18 17 17 18 18 19 19 19 18 18 18 17
14 14 14 15 15 14 14 14 14 15 16 15 15 15 15 15 16 16 16 17 17 17 17 17 18 18 18 18 19 19 19 19 19 19 19 19 19 19 19 19 20 19 19
15 15 15 15 15 15 15 15 15 15 15 15 15 15 16 16 17 17 17 17 18 18 18 18 18 18 18 18 19 19 20 20 20 21 20 20 20 20 20 20 20 20 21
15 15 15 14 15 15 16 16 16 16 16 16 15 15 16 17 17 18 18 19 19 19 19 19 19 19 19 19 19 20 21 21 21 21 21 21 21 21 21 21 22 22 22
16 15 15 16 16 16 16 17 17 17 17 17 17 16 16 17 17 18 19 19 19 20 20 19 19 19 20 21 21 21 21 22 22 22 22 22 22 22 22 23 23 24 24
16 16 16 16 17 17 17 17 17 17 18 18 18 17 17 17 18 19 19 19 19 19 19 20 20 21 21 22 22 23 22 23 23 23 23 23 23 23 24 24 24 25 25
17 17 17 17 18 18 18 18 18 18 18 18 18 18 19 19 18 18 19 19 19 19 20 20 21 22 22 23 23 23 24 24 24 24 24 24 25 25 25 26 26 26 25
18 18 18 18 19 19 19 19 19 19 19 19 19 18 19 19 19 19 19 20 20 20 21 21 22 22 23 23 24 24 24 25 25 25 26 26 26 26 27 27 27 26 26
20 19 19 20 20 19 19 19 19 19 19 20 20 20 20 20 21 21 21 21 21 21 21 22 23 23 24 24 25 26 26 26 26 27 27 27 27 27 27 27 27 26 26
21 21 21 20 20 20 20 20 20 20 20 20 20 20 20 21 21 21 22 21 21 22 23 23 24 24 25 26 26 27 27 27 27 27 27 27 27 28 28 28 27 27 27
22 22 22 22 22 21 21 21 21 21 21 21 21 21 21 21 21 22 22 23 23 23 24 25 25 25 26 26 27 27 28 28 27 27 27 28 28 28 28 28 28 27 27
23 23 23 23 22 22 22 22 22 22 22 22 22 22 22 22 23 24 24 25 25 25 26 26 26 27 27 27 27 27 27 28 28 27 28 29 29 29 29 29 28 28 28
24 24 24 24 24 23 23 23 24 24 24 23 23 23 23 24 24 24 25 26 26 27 27 27 27 28 28 28 28 28 27 28 29 29 29 30 31 31 31 30 30 30 31
25 25 25 25 25 24 24 24 24 25 25 25 24 25 24 24 25 25 26 27 27 28 28 28 28 28 28 29 29 29 29 29 30 30 31 31 31 31 31 31 32 32 32
25 24 25 25 25 25 25 25 25 26 26 26 26 26 26 26 27 28 29 29 29 29 29 29 29 29 29 30 30 31 31 31 31 31 32 32 33 33 33 33 33 33 33
25 25 25 26 26 26 26 26 26 27 27 28 28 29 29 29 29 30 31 31 31 31 31 31 31 31 32 32 32 31 32 32 33 33 33 33 34 34 34 35 35 35 34
26 26 26 26 27 27 28 28 28 29 29 30 30 30 30 31 31 32 32 33 33 33 33 33 33 33 34 34 34 33 33 33 34 34 34 34 35 35 35 35 36 35 35
27 27 27 27 27 28 28 28 28 29 30 31 32 32 32 32 33 33 34 35 35 35 35 35 35 34 35 35 35 35 35 35 35 35 35 35 35 35 35 36 36 36 36
26 26 27 27 28 29 29 29 29 29 30 31 32 33 33 32 33 34 35 35 35 36 36 36 36 36 36 36 36 37 37 37 37 37 37 37 37 37 37 37 37 38 38
28 28 28 28 29 29 30 30 30 31 31 32 32 33 33 34 35 35 35 36 36 36 37 37 37 37 37 37 37 37 38 38 38 39 38 38 38 38 39 39 39 39 39
29 29 29 29 30 30 31 31 32 32 33 33 33 34 34 36 37 37 38 38 37 37 37 38 38 38 37 38 38 38 38 38 38 39 39 40 40 40 41 41 41 41 41
30 30 30 30 31 31 32 33 33 34 34 35 35 36 36 37 37 38 38 38 38 38 39 39 39 38 39 39 39 39 39 40 40 40 40 41 41 41 42 42 42 42 42
32 32 32 32 33 33 33 34 35 35 36 36 36 36 37 38 38 38 38 38 39 39 40 40 40 40 40 40 40 40 40 41 41 41 41 41 42 42 43 43 44 44 44
34 34 35 35 35 35 35 36 36 36 37 37 37 38 38 39 39 39 38 39 40 40 40 40 41 41 41 41 41 41 41 42 42 42 42 42 43 44 44 45 44 45 45
36 36 36 37 37 37 37 37 37 37 37 37 37 38 39 39 39 39 39 39 40 40 40 40 40 41 41 42 42 42 42 43 43 43 43 44 44 45 45 45 45 45 45
36 37 37 37 37 37 38 38 38 38 38 38 38 39 40 40 40 40 40 41 41 41 41 41 41 41 41 42 42 43 44 44 44 45 45 45 45 46 46 47 47 47 46

GEFSGL_500_meanwind_258.txt.gz
Wind_Speed
14 15 15 15 14 14 15 15 15 15 15 16 16 15 15 15 15 14 15 15 15 16 17 17 18 18 18 18 18 19 19 18 18 18 19 19 19 19 19 19 19 20 20
14 14 15 15 15 15 16 16 16 15 15 15 15 15 15 15 15 15 15 16 16 16 16 17 17 18 18 19 19 19 20 20 20 19 20 20 20 20 20 20 21 21 21
14 15 15 15 15 15 16 16 16 16 16 16 15 15 15 15 15 16 17 17 16 16 16 16 17 17 18 19 19 20 20 21 21 21 21 21 21 21 21 21 22 22 22
15 15 16 16 16 16 16 16 16 16 16 16 16 16 16 16 17 17 17 17 16 16 17 17 17 17 18 19 19 20 21 21 22 22 22 22 22 22 22 22 23 23 23
16 16 16 16 16 17 17 16 16 16 16 16 16 17 17 17 18 18 18 17 17 17 17 18 18 18 18 20 20 20 21 22 22 23 22 22 23 23 23 23 24 24 24
17 17 17 17 17 17 17 17 17 16 17 17 17 17 17 18 18 19 19 19 19 19 18 19 19 19 20 21 21 22 23 23 23 24 24 24 24 24 25 25 25 25 25
18 18 18 18 18 18 18 18 17 17 18 18 18 18 18 19 19 20 20 20 20 19 19 20 20 20 21 21 22 23 23 24 24 25 25 25 25 25 25 26 26 26 26
19 19 20 19 19 19 19 19 19 19 19 18 18 19 19 19 20 20 20 19 19 19 19 20 21 21 21 22 22 23 23 24 24 25 25 25 25 25 26 26 26 26 26
21 21 20 20 20 20 20 20 20 20 20 20 19 20 20 21 21 21 21 20 20 20 21 21 21 22 22 23 23 23 24 24 25 25 25 25 26 26 26 27 27 27 27
21 21 21 21 21 21 21 21 21 21 21 21 21 21 22 22 22 22 22 21 21 22 22 23 23 23 24 24 24 25 25 25 25 25 26 26 27 27 27 28 28 28 28
22 22 22 22 22 22 22 22 22 22 23 23 23 23 24 24 24 23 23 23 23 24 24 24 25 25 25 26 26 26 27 27 27 26 27 27 27 27 28 28 29 29 29
22 22 23 23 23 23 23 23 23 23 23 23 24 24 24 24 25 25 24 24 24 25 25 25 26 26 26 27 27 27 27 28 27 27 27 27 27 28 28 29 29 30 30
23 23 23 24 24 24 24 24 25 25 24 24 24 25 25 25 26 26 25 25 26 26 26 26 26 26 27 28 29 29 29 29 29 29 28 28 28 29 30 30 30 31 31
24 24 24 25 25 26 26 26 26 26 26 26 26 26 26 26 27 27 27 27 27 28 28 28 28 28 28 29 29 30 29 30 30 30 30 30 30 31 31 31 32 32 32
25 25 25 25 26 26 26 26 26 26 26 26 26 27 27 27 28 28 29 29 29 29 29 29 29 29 30 31 31 30 30 31 31 31 32 32 32 33 33 34 34 34 33
25 25 25 26 26 26 26 25 25 25 26 26 26 26 27 28 28 29 29 30 30 30 31 30 30 31 31 31 31 31 31 32 32 33 33 34 33 34 34 35 35 36 36
27 26 27 27 27 26 26 26 26 26 25 25 25 26 26 27 28 29 29 30 31 31 32 32 32 31 31 31 32 32 32 32 33 34 34 34 34 35 35 36 36 36 36
29 29 28 28 28 27 28 27 27 26 26 26 26 26 27 27 28 29 29 30 31 31 32 32 32 32 32 32 32 33 33 33 34 34 34 35 35 35 36 36 36 36 36
30 30 30 29 29 29 28 27 27 27 27 27 27 27 28 28 29 30 31 31 31 31 32 32 33 32 32 33 33 33 33 33 33 34 35 35 36 37 37 38 38 38 38
31 30 30 29 29 28 28 28 28 28 28 29 29 29 30 31 31 32 33 33 33 32 32 33 33 34 34 34 34 34 34 34 35 35 36 37 37 38 39 39 39 40 40
31 30 30 30 29 29 29 29 30 30 30 30 30 31 32 32 33 33 33 34 33 33 34 34 35 35 36 35 35 35 36 36 36 36 37 38 38 39 40 40 41 41 41
31 31 31 31 30 30 30 30 30 30 31 31 31 31 32 33 34 34 35 35 35 34 35 36 36 37 36 36 36 37 37 38 38 39 39 40 40 41 41 41 41 42 42
32 32 32 31 30 31 31 31 31 31 32 32 32 33 33 34 34 35 35 35 35 35 36 36 36 37 37 37 38 38 39 39 40 40 41 42 42 42 42 42 42 43 44
34 33 32 32 32 32 32 33 33 33 32 33 33 34 34 35 35 35 35 35 35 36 36 37 37 37 38 38 38 39 39 40 41 42 42 42 42 42 43 44 44 44 45
34 34 33 33 33 33 33 34 34 34 34 34 34 35 35 35 36 36 36 37 37 37 37 38 38 38 39 39 39 40 40 41 42 43 43 44 44 45 46 46 46 46 46
34 34 34 34 34 34 34 34 35 35 35 35 36 36 36 37 37 37 38 38 38 38 38 39 39 39 40 40 40 41 41 42 43 44 44 44 45 46 47 47 47 47 47

GEFSGL_500_meanwind_264.txt.gz
Wind_Speed
14 15 15 15 15 15 15 15 16 16 16 16 17 17 17 16 16 15 15 15 15 15 16 16 16 17 18 18 19 19 19 18 19 19 20 21 21 21 21 21 20 20 20
15 15 16 16 16 16 16 16 17 17 17 17 17 17 17 16 16 15 15 15 16 17 17 17 17 17 17 18 19 19 19 19 19 19 20 21 22 22 22 22 22 22 21
16 16 16 16 17 17 17 17 17 17 18 17 17 17 17 17 16 16 17 16 16 17 17 17 17 18 18 18 18 18 19 20 20 20 21 21 22 22 22 22 22 22 22
17 17 17 17 17 17 17 17 17 18 17 18 18 18 18 18 17 17 18 18 17 17 18 18 18 18 18 19 19 20 20 21 21 21 22 23 23 23 23 23 23 23 23
18 18 18 18 18 18 18 18 18 18 19 19 19 18 18 18 18 18 18 18 18 18 19 19 19 19 19 20 20 21 22 22 22 22 23 23 23 23 23 22 23 23 23
19 19 19 20 20 20 20 19 20 20 20 19 19 19 19 19 19 20 20 19 19 19 20 20 20 20 20 21 21 22 22 23 23 23 23 23 23 23 22 23 23 24 24
19 19 19 19 20 20 20 20 20 20 20 19 20 20 20 20 20 20 20 20 21 21 21 21 21 21 21 21 22 22 22 23 23 23 23 23 23 23 23 23 24 24 24
19 19 19 19 19 20 20 20 21 21 21 20 21 21 21 21 22 21 22 22 22 22 21 21 21 21 22 22 22 23 23 23 23 24 24 24 24 24 24 24 25 25 26
20 20 20 20 20 21 21 21 21 22 22 22 21 22 22 23 23 23 23 24 24 23 22 22 22 22 22 23 24 24 24 24 25 25 25 25 24 25 25 26 26 27 26
20 21 21 21 21 22 22 22 22 22 22 22 22 23 23 24 24 24 25 25 24 24 23 23 23 24 24 24 25 25 26 26 26 26 26 25 25 26 26 26 27 27 27
22 22 22 22 23 23 23 23 23 23 23 23 23 24 24 24 24 24 25 25 24 24 25 25 25 25 26 26 26 26 26 27 27 27 26 26 26 26 27 27 28 29 29
24 23 23 24 24 24 24 24 24 24 25 25 24 25 25 25 25 25 25 26 26 26 26 27 27 27 27 27 27 27 27 27 26 26 26 27 27 27 28 29 30 30 30
25 25 25 25 25 25 25 25 25 25 25 25 25 25 25 25 26 26 26 27 27 27 28 28 28 28 29 29 29 28 28 27 27 27 27 28 29 29 30 30 30 30 31
26 25 25 25 25 25 25 25 26 26 25 25 25 25 26 26 26 26 27 27 28 28 28 29 29 29 30 30 30 29 29 29 29 29 29 29 30 30 31 31 31 31 31
27 27 27 27 27 27 27 27 27 27 27 27 26 26 26 26 27 27 28 28 28 29 29 29 29 29 29 30 30 30 30 30 31 32 32 32 32 31 31 32 32 31 32
29 30 29 29 29 29 28 29 29 29 28 28 27 27 27 28 28 29 29 29 29 30 30 30 30 30 30 30 30 30 31 32 32 33 33 32 32 32 32 32 33 33 34
31 31 31 31 30 30 30 31 30 29 29 29 29 29 29 29 30 30 30 30 30 30 30 30 30 30 30 30 30 31 31 32 32 32 32 33 33 34 34 34 34 35 35
33 33 33 33 33 32 32 32 31 31 30 30 30 30 30 30 30 30 31 31 31 31 30 31 31 31 31 31 31 32 32 32 32 32 32 33 33 34 35 35 36 36 36
34 34 34 34 34 34 33 33 33 32 32 31 31 31 31 31 31 30 30 30 30 31 32 32 32 32 32 32 32 33 33 33 33 33 33 33 33 34 35 35 36 37 37
34 35 35 34 34 34 34 34 34 33 33 32 32 32 32 32 31 31 31 31 31 32 33 33 33 33 33 33 33 33 33 34 34 34 34 34 34 35 35 35 36 37 37
35 35 35 34 35 35 35 35 34 34 34 34 34 33 33 32 32 32 32 32 32 33 33 34 34 34 34 34 34 34 35 35 35 34 34 34 35 35 36 36 38 38 38
36 35 35 35 35 35 35 35 35 35 35 35 34 34 34 34 33 33 33 34 34 34 34 34 35 35 35 36 36 36 37 36 35 36 35 36 36 37 38 39 39 40 40
35 35 35 35 35 35 34 35 35 35 35 35 35 34 34 35 35 35 35 35 35 36 36 36 35 36 37 37 37 37 37 37 37 37 37 37 38 38 39 40 41 41 41
35 35 35 35 35 34 34 35 35 35 35 35 35 35 35 36 36 37 36 36 37 38 38 38 38 37 38 38 38 38 38 38 38 38 39 39 39 39 40 41 42 42 43
35 35 35 35 34 35 35 35 35 36 36 35 35 36 36 36 36 37 37 38 38 38 39 39 39 39 39 39 39 38 38 39 39 40 40 40 41 41 42 42 43 44 44
35 35 35 35 35 36 36 36 36 36 36 35 35 35 36 36 37 37 38 38 39 39 39 39 39 38 38 38 38 39 39 39 40 40 41 41 42 43 43 44 44 45 45

GEFSGL_500_meanwind_270.txt.gz
Wind_Speed
12 12 12 12 13 13 12 12 12 13 13 14 14 15 15 15 15 15 15 15 15 15 16 15 15 15 15 16 16 17 17 18 19 20 20 20 21 20 20 20 20 20 21
13 13 13 13 13 13 13 13 13 14 14 14 14 14 15 15 15 15 15 15 15 15 15 16 15 15 15 15 17 17 17 18 19 20 20 20 20 20 20 20 20 20 21
15 15 15 14 14 14 14 14 14 15 15 15 15 14 14 15 15 16 16 15 15 15 15 16 16 16 16 16 17 17 17 18 19 19 18 18 19 20 20 21 21 21 21
16 15 15 15 15 15 15 15 16 15 16 15 15 15 15 15 15 16 16 16 16 17 17 17 17 17 17 17 18 18 18 19 19 19 19 19 20 20 20 21 21 21 21
16 16 15 15 16 16 16 16 16 16 16 16 16 16 16 16 16 16 16 16 17 18 18 18 19 19 19 19 19 19 19 19 20 20 20 20 21 21 21 21 22 22 22
17 16 16 16 16 16 16 16 16 16 17 17 17 17 16 16 17 17 17 18 18 19 19 19 20 20 19 19 19 20 20 21 21 21 21 21 21 21 22 22 22 22 23
17 17 17 17 17 16 16 16 16 17 17 17 18 17 16 17 18 18 18 19 19 20 20 20 20 20 20 20 20 20 21 21 21 22 21 21 21 22 22 22 22 22 22
18 18 18 18 17 17 17 17 17 17 18 17 17 17 17 18 19 19 19 19 20 20 20 20 21 21 21 21 21 21 22 22 23 23 23 22 21 22 22 23 24 24 24
19 19 19 19 19 18 18 18 18 18 18 18 18 19 19 19 19 20 20 20 20 20 21 21 21 21 22 22 22 22 23 23 23 24 23 23 23 23 24 24 25 26 26
20 20 20 20 19 19 19 19 19 19 19 20 20 20 20 20 20 20 21 21 21 21 22 23 22 22 23 23 23 23 23 24 24 24 24 24 24 25 25 26 26 27 27
22 21 21 21 21 21 21 21 21 21 21 21 21 20 20 21 21 21 22 22 23 23 24 24 24 24 24 25 25 25 25 26 25 25 25 26 26 27 27 28 28 29 29
24 23 23 22 23 23 23 22 22 22 22 22 22 21 22 22 23 23 24 24 24 24 25 25 25 26 25 25 25 26 26 26 27 26 26 27 27 28 29 30 29 29 29
25 25 25 24 24 24 24 24 24 24 24 24 24 24 24 25 25 26 26 25 25 25 25 26 26 27 26 26 26 26 26 26 26 27 27 28 29 30 30 30 30 31 31
26 27 26 26 26 26 26 26 26 26 27 27 26 26 26 26 26 27 27 26 26 27 26 26 27 27 27 27 27 27 28 27 27 27 28 29 29 30 31 31 31 31 32
28 28 28 28 28 28 28 28 28 28 28 28 28 28 27 26 26 27 27 27 27 27 27 27 27 27 28 28 28 28 29 29 29 29 30 30 30 30 31 31 32 32 32
30 30 30 30 30 30 30 30 30 30 30 30 30 29 28 27 27 28 28 28 28 29 29 28 28 29 29 29 29 30 30 30 30 30 31 32 32 32 32 32 32 33 33
32 31 31 32 32 32 32 32 32 32 32 31 31 30 30 29 29 29 29 30 30 30 29 29 29 30 30 30 30 31 31 31 32 32 33 33 33 34 34 34 34 35 34
33 33 33 33 33 33 33 33 33 33 33 32 32 32 31 31 31 30 30 31 30 31 30 30 30 31 31 31 31 32 32 33 33 33 34 34 34 35 35 36 36 36 36
33 33 33 34 34 34 34 34 34 34 33 33 32 32 32 32 33 32 32 31 31 31 31 30 31 31 32 32 33 33 33 34 34 35 35 36 36 36 36 36 36 36 37
33 33 33 33 33 34 34 34 34 34 34 33 33 32 33 33 33 33 33 33 32 32 31 31 32 32 33 33 33 34 35 35 36 36 36 36 36 36 36 37 37 37 37
33 34 34 34 34 34 34 34 34 34 34 33 33 33 33 34 34 35 35 34 34 34 34 34 33 33 34 34 35 35 36 36 36 37 37 37 37 38 38 38 38 38 38
34 34 34 34 34 34 34 34 34 33 33 34 34 34 35 34 35 35 35 35 35 34 35 35 34 35 35 35 35 36 37 37 37 37 37 37 38 38 39 39 39 39 39
35 34 34 34 35 35 34 34 34 33 33 33 34 34 34 34 35 35 35 35 35 35 35 35 34 35 36 36 36 36 36 37 37 37 38 38 38 38 38 39 39 39 40
34 34 34 35 35 35 34 34 34 34 34 34 34 34 34 35 35 35 36 35 35 35 35 34 34 34 35 36 36 36 36 37 37 37 37 38 38 38 38 39 40 40 40
34 34 34 34 34 34 34 34 34 34 34 35 35 35 35 35 35 35 35 36 35 35 34 34 34 35 36 36 36 36 37 37 37 37 38 38 38 38 38 39 39 39 40
33 33 33 33 33 34 34 34 34 34 35 35 35 35 35 34 34 35 35 35 35 36 36 35 36 36 37 37 37 37 38 38 38 38 39 39 39 38 38 39 39 40 40

GEFSGL_500_meanwind_276.txt.gz
Wind_Speed
13 13 13 13 13 13 13 14 14 14 14 14 15 15 16 16 16 16 16 16 16 17 17 17 17 17 17 17 18 18 18 18 18 18 18 18 18 19 19 20 20 20 20
15 15 15 15 15 15 15 15 15 15 15 15 15 15 16 16 16 17 17 17 17 17 17 17 17 17 17 17 18 18 18 19 18 18 19 19 19 20 20 21 21 21 21
16 16 16 16 16 16 16 16 16 17 17 16 16 16 16 17 17 17 17 17 18 18 17 17 17 17 17 18 19 19 19 19 19 19 19 19 20 21 21 21 21 22 22
17 17 17 17 17 17 17 17 17 17 17 17 17 17 17 17 17 17 17 17 17 17 17 17 17 18 18 19 19 19 19 20 20 20 21 20 20 20 21 21 21 22 22
17 17 17 17 17 17 18 18 18 18 18 18 18 18 17 17 17 17 17 17 18 18 18 18 18 19 19 19 19 19 19 20 20 21 21 21 21 21 21 22 22 22 22
17 17 17 17 17 17 18 18 18 18 18 18 18 18 18 18 18 17 17 17 18 18 18 18 18 18 19 19 20 20 20 21 22 22 22 22 22 21 21 22 22 22 22
18 18 18 18 18 19 19 19 19 19 19 18 18 18 18 18 18 18 18 18 18 19 19 19 19 19 20 20 20 21 21 22 23 22 21 21 22 22 22 22 22 23 23
20 20 19 19 20 20 20 20 20 20 19 19 19 19 19 18 19 19 19 20 20 20 19 19 20 20 20 20 20 21 22 22 22 22 22 23 23 23 23 23 24 24 24
21 21 21 21 20 21 21 21 21 20 20 20 20 20 20 20 20 20 21 21 20 20 20 20 20 20 21 21 21 21 22 22 23 23 23 24 24 24 24 24 24 25 25
22 22 22 21 21 21 21 21 21 21 21 21 21 21 21 21 21 21 22 22 21 21 21 21 22 22 22 23 23 23 23 23 24 24 24 25 25 25 26 25 26 27 27
23 23 23 23 22 22 22 21 22 22 22 22 22 22 22 22 23 23 24 23 23 23 23 23 23 24 25 25 25 24 24 25 25 25 25 25 26 26 27 27 28 28 29
25 25 24 24 24 23 23 23 23 23 23 24 23 24 24 24 25 25 25 25 25 25 25 25 25 26 26 26 27 27 26 26 26 26 26 26 26 26 27 27 29 30 30
26 26 26 26 26 25 25 25 25 25 25 26 26 26 26 27 27 28 28 27 27 27 27 27 27 27 28 28 28 28 28 27 27 27 26 27 27 28 29 29 29 30 30
28 27 27 28 27 27 27 27 27 27 27 27 28 28 29 29 29 29 29 29 29 29 29 29 29 29 29 29 29 29 29 28 28 28 27 27 28 29 29 30 31 31 31
31 30 30 29 29 29 29 29 29 29 29 29 29 29 30 30 30 30 30 30 30 30 30 31 30 30 30 30 30 30 30 30 29 29 28 29 29 29 30 31 31 32 33
32 32 32 32 32 32 31 31 31 31 31 31 31 31 32 31 31 31 31 31 32 32 31 31 31 31 32 32 32 31 31 31 31 31 31 31 31 31 31 31 32 32 33
33 33 34 33 33 34 34 33 33 33 33 33 33 33 33 33 32 32 32 32 33 33 33 33 33 33 33 33 33 32 32 32 32 32 32 33 33 33 33 33 33 33 33
34 34 34 34 33 33 34 34 34 34 34 34 34 34 34 34 34 33 33 33 33 34 34 34 33 34 34 34 34 34 33 33 33 33 33 34 35 35 35 35 36 36 35
34 34 34 34 34 33 34 34 34 34 34 34 34 34 35 35 35 34 34 34 34 34 34 34 34 34 34 34 34 34 34 34 34 35 35 36 36 36 36 36 36 37 37
35 34 34 34 33 33 34 34 33 33 33 33 33 34 34 34 34 34 35 35 35 35 35 34 34 35 34 34 34 35 35 35 35 36 36 37 37 37 37 37 37 37 37
35 35 34 34 34 34 34 33 33 33 33 33 33 34 34 34 34 34 34 35 35 35 35 34 34 35 35 36 36 36 37 37 37 37 38 38 38 38 37 37 37 38 38
35 35 35 34 34 34 34 33 33 33 33 34 34 35 35 35 35 34 34 34 34 34 34 34 35 35 36 36 37 37 37 37 37 37 37 37 37 37 37 37 38 38 39
34 34 34 34 34 34 33 34 34 34 34 34 35 35 35 35 34 34 34 34 34 34 34 34 35 35 36 36 36 36 36 36 36 36 36 36 36 36 37 38 38 39 39
34 34 34 35 35 34 34 34 34 35 35 35 35 35 35 34 33 33 33 34 34 34 35 35 35 35 35 35 35 35 35 35 36 36 36 36 36 36 37 38 39 39 40
33 33 34 35 35 35 34 34 34 34 35 35 35 35 35 34 34 34 34 34 34 34 34 34 34 35 35 35 35 35 35 35 35 35 36 36 37 37 38 38 39 39 40
33 34 34 34 34 34 34 34 34 34 35 34 35 35 34 34 34 34 34 34 34 34 34 34 34 35 35 35 35 35 36 36 36 36 36 37 38 38 38 38 39 39 40

GEFSGL_500_meanwind_282.txt.gz
Wind_Speed
13 14 14 14 14 14 15 15 15 15 15 15 14 15 15 15 16 16 17 17 17 17 17 17 17 17 17 17 17 17 18 18 18 18 18 19 19 20 20 20 20 20 21
15 15 15 15 15 15 16 16 16 16 16 16 16 15 15 15 16 16 17 17 18 18 17 17 18 18 18 18 18 18 18 18 19 19 19 19 19 20 21 21 21 21 21
16 16 16 16 17 17 17 17 17 17 17 17 17 17 17 17 16 16 17 17 18 19 19 19 18 18 18 18 18 18 18 18 19 19 19 20 20 20 21 21 21 21 21
17 17 17 18 18 18 18 18 18 18 18 19 18 18 18 18 18 18 18 18 18 19 19 19 19 18 18 18 18 18 19 19 19 20 20 20 21 21 21 21 21 21 21
19 19 19 19 19 19 19 19 19 19 19 19 19 19 19 19 19 19 18 18 18 18 19 19 19 19 18 18 18 19 19 20 20 20 21 21 21 22 21 21 21 21 22
19 19 19 20 20 20 20 20 19 19 20 20 19 19 20 20 20 19 19 19 18 18 18 19 19 18 18 19 19 19 20 20 21 21 21 22 22 22 22 22 22 22 23
20 20 20 20 20 20 20 20 20 20 20 20 19 19 20 20 20 20 20 19 19 19 19 19 19 19 19 19 20 21 21 21 22 22 22 22 23 23 23 23 23 23 23
22 21 21 20 20 19 19 20 20 20 20 20 20 20 20 21 21 21 21 20 20 20 20 20 20 20 19 20 20 21 21 22 22 23 23 23 23 23 23 24 24 24 24
22 22 21 21 21 20 20 20 20 20 20 20 21 21 21 21 22 22 22 22 22 22 22 21 21 21 21 21 21 22 22 22 23 23 24 24 24 23 23 24 25 26 26
24 23 23 22 22 21 21 21 22 22 22 22 22 22 22 22 23 23 23 23 23 23 23 23 23 23 23 24 24 24 24 24 24 24 24 24 24 24 25 25 26 26 27
25 25 25 24 23 23 23 23 23 23 23 23 23 23 23 24 24 24 25 25 25 25 25 25 25 25 25 26 26 25 25 25 25 25 25 25 25 25 26 26 27 28 29
26 25 25 25 25 25 25 25 25 25 25 25 25 25 25 26 26 26 26 26 26 26 26 26 27 27 27 27 26 26 26 27 27 27 27 27 26 27 27 27 28 29 30
27 27 27 27 27 26 26 26 26 26 26 27 27 27 27 27 27 28 28 28 28 27 27 27 28 29 28 28 27 27 28 28 28 28 28 28 28 28 28 29 29 30 30
27 28 28 28 28 27 27 27 27 27 27 27 28 28 27 27 28 28 28 29 30 29 29 29 29 29 29 29 29 29 29 29 29 29 29 30 30 31 31 30 30 31 32
28 28 28 28 28 29 29 29 29 29 30 30 29 29 29 28 28 28 29 29 30 30 30 29 29 30 30 30 30 29 30 30 30 30 30 31 31 32 32 32 32 33 33
30 30 30 30 30 30 31 31 31 31 31 31 31 30 30 30 30 30 30 30 30 30 30 30 30 30 31 31 30 30 30 31 31 32 32 32 32 32 33 33 33 33 34
33 32 32 33 33 33 32 33 33 33 33 32 32 32 32 31 31 31 31 31 30 30 30 30 31 31 31 31 31 31 32 32 32 33 33 33 34 34 34 34 34 34 34
34 34 33 33 34 34 34 33 33 33 33 32 32 32 32 32 32 31 32 31 30 30 31 32 32 32 32 33 33 33 34 34 34 34 35 34 35 35 35 35 35 36 35
35 34 34 34 34 35 35 34 34 33 33 32 32 32 32 32 31 31 31 32 31 31 32 32 32 32 33 34 34 34 35 35 35 35 35 35 35 35 35 35 36 36 36
35 35 35 35 35 35 35 35 34 33 32 31 31 31 32 32 31 31 31 31 32 32 32 32 33 33 34 34 35 34 35 35 35 35 35 35 35 35 35 35 35 35 36
35 35 35 35 35 34 34 34 33 33 32 32 32 32 32 32 32 32 32 32 32 32 32 32 32 33 33 34 35 34 34 34 34 34 34 35 35 35 34 35 35 36 36
35 36 35 35 35 34 34 34 33 33 33 33 33 33 33 33 33 33 32 32 33 34 33 33 32 33 33 34 34 34 33 33 33 33 34 34 34 35 35 35 36 36 37
35 35 35 35 35 34 34 34 34 34 34 33 33 33 33 33 33 33 33 33 33 33 33 33 34 34 34 33 33 33 33 32 33 32 33 34 34 35 35 35 36 37 37
36 36 35 35 34 34 34 34 34 34 34 34 34 34 34 33 33 33 33 33 33 33 34 34 34 34 34 34 33 33 33 33 33 33 33 33 33 34 35 35 36 37 37
35 35 35 35 35 34 34 34 34 35 34 34 33 33 33 33 33 33 33 33 33 33 33 33 34 33 33 33 33 33 33 33 32 32 32 32 33 33 34 35 36 36 37
35 35 35 35 35 35 35 35 35 35 35 34 34 33 33 33 33 33 33 33 33 33 33 33 33 33 32 33 33 33 33 33 33 33 33 33 34 34 35 35 35 36 37

GEFSGL_500_meanwind_288.txt.gz
Wind_Speed
15 15 15 15 15 15 15 15 15 15 15 15 16 16 16 16 16 16 17 17 17 17 17 17 17 17 17 18 18 18 18 18 18 18 18 18 18 18 18 18 18 18 18
17 17 17 17 17 17 17 17 17 17 17 17 17 17 18 18 18 18 18 18 18 18 18 18 18 18 18 18 19 19 19 18 19 19 19 19 19 19 18 19 19 19 20
18 18 18 18 18 18 18 18 18 19 19 19 19 19 19 19 20 19 19 19 19 19 19 19 19 19 19 19 20 20 20 19 19 19 19 18 19 19 19 19 20 20 21
19 19 19 19 19 19 19 20 20 20 20 20 20 20 20 21 21 20 20 20 21 20 20 20 20 20 20 20 20 21 21 21 20 19 19 19 19 19 20 20 20 21 22
20 20 20 20 20 20 20 20 20 20 20 20 21 21 22 21 21 21 21 21 21 21 21 21 21 21 21 21 20 21 21 21 21 20 20 20 20 21 21 21 21 22 22
20 21 20 20 20 20 20 20 21 21 21 21 21 22 22 22 22 22 21 21 21 21 21 21 22 22 21 21 20 20 21 21 21 21 21 21 21 22 22 22 22 22 22
22 21 21 21 21 21 21 21 21 21 22 22 22 22 22 22 22 22 21 21 21 21 21 21 21 22 22 22 22 22 22 22 22 22 22 22 23 23 23 23 23 23 23
23 23 23 23 22 22 22 22 23 22 22 22 22 22 22 22 22 22 22 22 22 22 21 21 21 22 23 23 23 23 23 23 23 23 23 23 24 24 24 24 24 24 24
24 24 24 24 24 24 23 23 24 23 23 23 22 23 22 22 22 23 23 23 23 22 22 22 22 22 23 24 24 24 23 23 24 24 24 24 25 25 25 25 25 25 25
24 24 25 24 24 24 24 25 25 24 24 23 23 23 23 23 23 23 24 24 24 24 23 24 24 24 24 24 25 25 24 24 25 26 25 25 26 26 26 26 26 26 26
25 25 25 25 26 26 26 26 25 25 25 24 24 24 23 23 24 24 25 25 25 25 25 25 25 25 25 25 26 26 26 26 26 26 26 26 27 27 27 27 27 27 27
27 27 27 27 26 25 26 26 26 26 26 25 26 25 25 25 25 26 26 26 26 26 25 25 26 26 26 26 26 27 27 26 26 26 27 27 27 28 28 29 29 29 29
28 28 28 28 27 27 27 27 27 27 27 27 27 27 26 27 27 28 28 28 27 27 27 27 27 27 27 27 27 27 27 27 28 28 28 28 28 28 29 29 30 30 31
29 29 30 29 29 29 28 28 28 29 29 29 29 29 29 29 29 29 28 28 28 28 28 29 29 28 28 28 28 28 28 28 28 29 29 30 30 30 30 30 30 31 32
31 31 31 32 31 31 30 30 31 31 31 31 30 30 30 30 30 29 29 29 29 29 29 29 29 29 29 29 29 29 29 30 30 29 29 30 31 31 31 31 31 32 32
34 33 33 33 33 33 33 32 31 32 32 32 32 32 31 31 30 30 30 30 29 29 29 29 29 29 29 29 29 29 30 30 30 30 30 30 31 32 32 32 32 32 32
35 35 35 35 34 34 34 33 33 33 33 33 33 32 32 32 31 31 31 31 30 30 30 30 29 29 29 29 29 30 30 31 31 31 31 32 32 32 32 33 33 33 33
36 36 36 36 36 36 36 36 35 35 34 33 33 33 33 33 33 32 32 32 32 31 31 30 30 31 31 31 31 31 31 32 32 32 32 32 32 33 33 33 33 34 34
36 37 37 37 37 37 37 37 37 36 36 35 34 34 35 34 34 34 33 33 33 32 32 32 32 31 31 31 32 32 32 32 32 32 33 33 33 33 33 34 34 34 33
37 36 36 36 37 37 36 36 36 36 36 35 35 35 36 36 35 34 34 34 33 33 33 33 32 32 32 32 32 33 33 32 32 32 33 33 33 33 34 34 34 34 33
36 36 36 36 36 36 36 36 35 35 36 36 36 36 36 36 35 34 34 33 33 33 33 33 32 32 32 32 32 32 33 32 32 33 34 34 34 34 34 33 33 33 33
35 35 35 35 36 37 36 36 35 35 35 36 36 36 36 35 35 35 35 34 34 33 33 33 33 33 33 32 32 32 32 32 32 31 31 32 33 34 34 33 33 34 34
35 35 36 36 35 35 35 36 36 36 35 36 36 36 36 35 35 35 34 34 33 33 33 32 33 33 33 32 32 32 32 32 32 32 33 33 33 34 34 34 35 35 35
34 35 35 35 35 35 35 35 35 36 36 36 36 36 36 36 35 35 35 34 34 33 33 33 32 33 33 33 33 33 33 33 33 34 34 34 33 34 34 34 35 35 35
34 34 34 35 35 35 35 35 35 35 36 36 35 35 35 35 35 35 35 34 34 34 34 34 34 33 33 33 33 33 34 34 35 35 35 34 34 34 35 35 35 35 35
35 35 35 36 36 35 35 35 35 35 35 35 35 35 35 35 35 35 35 35 35 34 35 35 35 34 34 33 34 34 35 35 35 35 35 35 35 35 35 35 35 35 35

GEFSGL_500_meanwind_294.txt.gz
Wind_Speed
16 16 16 16 16 16 16 16 15 15 15 15 15 15 16 16 17 17 17 17 18 18 18 18 19 19 19 19 19 19 19 19 18 18 19 19 19 19 18 18 18 18 18
19 19 18 18 18 18 17 17 17 17 17 17 16 16 17 17 17 17 18 18 19 19 19 19 20 20 20 19 20 20 20 19 19 19 19 19 19 19 20 19 19 19 19
20 20 19 19 19 19 19 19 18 18 18 18 18 18 18 18 18 18 19 19 20 20 20 20 20 20 20 20 20 21 21 20 20 20 20 20 20 20 20 20 20 20 19
21 20 20 19 19 19 20 20 20 19 19 19 18 19 19 19 19 19 20 20 20 21 21 21 21 21 21 21 21 21 22 22 22 21 21 21 21 21 21 21 21 21 20
21 21 20 20 20 20 20 20 20 20 20 20 20 20 20 20 20 20 20 20 21 21 21 22 22 22 22 22 22 22 23 23 23 23 23 22 22 22 22 22 22 22 22
21 21 21 21 21 21 21 21 21 21 21 21 21 21 21 21 21 21 22 22 22 22 22 22 23 23 23 23 23 23 23 23 24 23 23 23 22 22 22 23 23 22 22
22 22 22 21 22 22 22 23 23 22 22 22 22 22 23 22 22 22 22 22 23 23 23 23 23 24 24 24 24 24 24 24 24 24 23 23 24 23 23 23 24 24 24
23 22 23 23 23 24 24 24 24 24 24 24 24 24 24 23 23 23 23 23 23 23 24 24 24 24 24 24 24 24 25 24 24 25 24 24 24 24 24 24 24 25 25
23 23 23 23 24 24 24 24 24 25 25 25 25 25 24 24 24 24 24 24 24 24 24 25 25 24 24 24 24 24 25 25 25 25 25 25 25 25 25 26 26 26 25
23 24 24 24 25 25 25 25 25 25 26 26 26 26 26 26 25 25 25 25 25 25 25 26 26 26 26 25 25 25 26 27 27 26 26 26 26 26 26 26 26 26 26
24 24 25 25 26 26 25 25 26 27 27 27 28 28 28 27 27 26 26 26 26 26 27 27 27 27 27 27 27 27 27 27 27 26 27 27 27 27 27 27 27 27 26
26 26 26 26 27 27 27 27 28 28 28 28 28 29 29 29 29 28 28 28 27 27 28 28 28 28 28 28 28 27 27 27 27 27 27 27 28 28 29 29 29 29 28
27 28 28 28 28 28 28 29 29 29 29 29 29 29 30 30 30 30 30 30 30 29 28 29 29 28 28 28 27 27 27 27 27 27 28 28 28 29 29 30 29 30 30
29 29 29 29 29 30 30 30 31 31 31 31 31 31 31 31 31 31 31 31 31 31 30 29 29 29 29 28 28 28 28 28 28 28 28 28 28 28 29 30 30 30 31
30 30 30 30 31 31 31 31 32 32 33 33 33 32 32 32 32 32 31 31 30 30 30 30 30 30 29 29 28 28 28 28 28 28 28 28 28 28 29 29 30 30 31
32 31 30 30 31 32 32 32 33 33 33 34 33 32 32 33 33 32 32 31 31 31 31 31 30 30 30 30 29 29 29 29 28 28 29 29 30 30 31 31 31 31 31
31 32 31 31 32 32 32 33 33 33 33 33 33 32 32 32 32 33 32 32 31 31 31 31 31 31 31 30 30 30 30 30 30 29 29 30 31 32 32 32 32 33 33
32 32 32 33 33 33 34 34 34 34 34 34 34 33 33 32 32 32 33 33 33 32 32 33 32 32 32 31 31 31 30 30 30 30 30 31 31 32 32 33 33 33 34
33 33 33 33 34 34 34 34 34 35 34 34 34 33 33 33 33 33 33 33 34 34 33 33 34 33 33 32 32 32 32 32 31 31 31 32 32 32 32 32 33 34 34
32 33 34 34 34 34 35 34 34 34 34 34 34 34 34 33 33 33 34 34 34 34 34 34 34 33 33 34 34 33 33 33 33 33 33 33 33 33 33 33 33 34 34
32 32 33 34 33 33 33 34 34 34 34 34 33 33 33 33 33 33 33 33 34 34 34 34 34 34 34 34 34 33 33 34 34 34 34 35 35 34 34 34 35 36 36
31 31 32 33 33 32 33 33 33 32 31 32 32 32 32 32 33 33 33 33 33 33 34 34 34 34 35 35 35 35 34 34 34 34 35 35 35 35 35 36 36 36 37
31 32 32 33 33 33 33 33 32 31 31 31 31 32 32 32 33 33 33 34 34 34 34 34 34 35 35 35 35 35 35 35 35 35 35 35 35 36 36 36 36 36 37
32 32 33 33 33 33 33 32 31 31 30 30 31 32 32 33 33 33 33 33 33 34 34 34 34 34 35 35 36 36 36 36 36 35 35 36 36 36 37 37 37 37 37
32 32 32 33 33 33 33 32 31 30 30 30 31 31 32 32 33 33 34 34 33 33 34 34 34 34 34 35 35 35 36 36 36 36 36 37 37 37 37 37 37 36 36
33 33 32 32 31 32 32 32 32 32 31 31 32 32 33 33 34 34 34 34 34 34 34 34 33 33 33 34 34 34 35 36 36 36 36 36 36 36 36 36 36 36 36

GEFSGL_500_meanwind_300.txt.gz
Wind_Speed
18 18 18 18 18 18 18 18 17 17 17 17 17 17 17 18 18 18 19 19 19 20 19 19 20 20 21 21 21 21 21 21 20 19 19 20 20 20 20 20 19 19 19
20 20 20 19 19 19 19 19 18 18 18 18 18 18 18 18 19 20 20 21 21 21 21 21 21 21 22 22 22 22 22 21 21 20 20 20 20 20 20 20 20 21 21
21 20 20 20 20 20 20 20 20 19 19 20 20 19 20 20 20 21 21 21 21 22 22 22 22 22 22 22 22 23 23 22 22 21 21 20 20 20 20 20 20 21 21
21 21 20 20 20 20 20 21 21 21 21 21 21 21 21 21 21 21 22 22 22 22 22 23 23 23 23 23 23 23 23 23 23 22 22 21 21 21 21 21 22 22 22
22 22 22 22 21 22 21 21 21 22 22 22 22 22 22 22 22 23 23 23 23 23 23 24 24 24 24 24 24 24 24 23 23 23 23 22 23 23 23 23 23 23 23
23 23 23 23 23 23 23 23 22 22 22 22 22 23 23 23 24 24 24 24 24 25 25 25 25 25 25 25 25 25 24 24 24 24 24 24 24 24 24 25 24 24 23
23 24 24 24 23 23 23 23 23 23 23 24 24 24 25 25 25 25 25 26 26 26 26 26 26 26 26 26 26 26 26 26 26 26 26 26 25 25 25 25 25 25 25
23 23 23 23 23 23 23 24 24 24 25 25 25 25 26 26 26 27 27 27 27 27 27 28 28 28 28 27 27 28 28 28 27 28 28 27 27 27 26 26 26 26 26
24 24 24 24 24 24 25 25 26 26 26 26 26 27 27 27 27 28 28 28 28 28 29 29 29 29 29 29 29 29 29 29 29 28 28 28 28 28 27 27 27 27 26
25 25 26 25 25 25 26 27 27 28 28 27 28 28 28 28 28 29 29 30 29 29 29 30 30 30 31 30 30 29 29 29 29 28 28 28 28 28 28 27 27 27 27
26 27 27 27 27 26 26 27 28 28 28 28 28 29 29 29 29 29 30 30 30 30 30 29 29 30 30 30 30 29 29 29 29 29 29 29 28 28 28 28 27 27 27
27 27 28 28 28 28 28 27 28 29 29 29 29 29 30 30 30 30 30 29 29 29 29 29 29 29 29 29 29 29 29 29 29 30 30 30 29 28 28 28 28 27 27
28 28 28 28 28 28 28 28 28 29 29 30 30 30 30 30 31 30 30 30 30 30 30 29 29 29 29 29 29 29 30 30 30 30 30 29 29 29 29 28 28 27 27
29 29 29 29 29 29 29 29 29 30 31 31 31 31 31 31 31 31 31 32 32 32 31 30 30 30 30 30 30 30 30 30 30 30 30 30 30 30 29 29 29 28 28
29 29 30 30 31 31 31 31 32 31 31 32 32 32 32 32 32 32 33 33 32 32 32 31 32 31 30 30 30 30 30 30 30 30 30 30 30 30 30 30 29 29 29
30 31 31 31 31 31 32 32 33 33 32 33 33 33 33 32 33 33 33 34 34 34 33 33 32 32 31 30 30 31 31 31 31 30 30 31 31 31 31 31 31 31 31
30 31 31 31 31 31 31 32 32 33 33 33 32 33 33 33 33 33 34 34 34 35 34 33 33 32 32 32 32 32 32 32 32 31 31 31 31 31 31 31 32 31 31
30 31 31 30 30 31 31 31 31 32 32 32 32 32 32 32 33 34 34 33 33 34 34 33 33 33 33 33 33 33 33 34 34 33 32 32 32 32 32 32 32 32 32
30 30 30 30 30 31 31 31 32 32 33 33 33 33 33 33 34 34 33 33 33 33 33 33 34 34 34 34 34 34 34 34 34 34 33 33 32 32 33 33 33 33 33
31 31 30 31 31 31 32 32 32 33 33 33 33 33 33 33 32 32 32 32 33 33 33 33 34 35 35 34 34 34 33 33 33 33 33 33 33 33 33 33 33 34 34
31 31 31 31 31 31 32 32 32 32 33 33 33 33 34 33 32 31 31 32 32 32 32 33 33 34 35 35 35 34 34 34 34 34 34 34 34 34 34 34 34 34 35
32 32 31 32 32 32 32 32 32 32 33 33 33 33 33 33 32 31 31 32 32 32 33 32 33 33 33 34 34 34 34 35 35 35 35 36 36 36 36 36 36 37 37
33 32 32 31 32 32 32 33 32 32 31 32 31 32 32 33 33 32 32 32 32 32 32 32 32 32 32 33 33 33 34 34 34 35 35 35 36 37 37 37 37 38 38
33 33 33 33 32 32 32 32 32 32 32 32 32 32 32 32 32 33 33 33 33 33 32 33 33 33 33 32 32 32 32 33 34 34 35 35 36 36 37 37 37 37 38
33 33 33 33 32 32 31 31 32 33 32 32 32 32 32 32 32 32 32 33 33 33 33 33 33 33 33 33 33 33 32 32 32 32 33 34 34 35 35 36 37 37 37
33 33 33 33 32 32 32 32 32 32 32 32 32 32 32 31 32 32 32 32 32 32 32 33 33 32 32 32 32 32 32 31 31 31 31 32 33 33 34 34 35 35 36

GEFSGL_500_meanwind_306.txt.gz
Wind_Speed
20 20 20 20 20 20 20 19 19 19 18 19 19 19 19 19 19 19 19 19 20 21 21 21 21 21 21 21 21 21 22 22 22 22 22 21 21 21 21 20 20 20 20
21 21 21 21 22 22 22 21 21 21 21 20 20 21 21 21 20 20 20 20 21 21 21 21 21 21 21 22 22 22 23 23 23 23 23 23 22 22 22 21 21 21 21
21 21 21 22 23 24 24 24 23 23 23 22 22 22 22 22 21 21 22 22 22 23 23 23 23 23 23 23 23 24 24 24 24 24 24 24 23 23 23 22 22 22 22
22 23 23 23 24 25 25 25 24 24 24 24 23 23 23 23 23 23 23 23 23 24 24 25 25 25 25 25 25 25 25 25 25 25 25 25 25 24 24 23 23 23 23
23 23 23 24 24 24 24 24 25 25 25 25 25 25 24 24 24 24 24 24 25 25 25 26 26 26 26 26 26 26 26 26 26 26 26 26 26 25 25 24 24 24 24
24 24 24 24 24 25 24 24 25 25 26 26 26 26 26 26 26 25 25 26 26 26 26 26 26 26 26 27 27 27 27 27 27 27 27 27 27 27 26 26 26 26 25
24 24 24 24 24 24 24 25 25 25 26 26 26 26 27 27 26 26 26 26 26 26 27 26 27 27 27 27 27 27 27 27 27 27 27 27 28 28 28 28 27 27 26
24 24 24 24 24 25 25 25 25 25 26 26 27 27 28 28 27 27 27 27 28 28 27 28 28 27 27 27 27 27 26 26 26 26 26 26 27 28 28 28 28 28 28
25 24 24 24 24 24 25 26 27 27 27 27 28 28 28 28 28 29 29 28 28 29 29 29 29 29 28 28 28 27 26 26 26 26 26 27 28 28 28 29 28 28 28
26 25 25 25 25 25 25 26 27 27 27 28 28 28 29 29 30 30 30 29 29 29 29 29 29 30 30 29 29 28 28 28 27 27 27 27 28 28 28 29 29 28 28
26 26 26 26 25 26 26 25 26 27 28 28 28 29 29 30 31 31 31 31 30 30 30 30 30 30 30 30 29 29 29 29 28 28 28 28 28 28 28 29 29 29 29
25 26 26 26 26 26 27 27 27 28 29 29 29 29 30 31 31 32 32 32 32 32 31 31 31 30 30 30 29 29 29 29 29 28 28 28 28 28 28 29 29 29 28
26 27 27 26 26 27 27 28 28 28 28 28 29 30 30 31 32 32 33 33 33 33 33 32 31 31 31 31 31 30 30 29 29 28 28 28 28 28 28 29 29 29 28
27 27 27 27 27 27 28 28 28 28 28 28 29 29 30 30 31 32 33 34 34 33 33 32 32 32 32 32 32 31 31 30 29 29 29 29 29 29 29 29 29 30 29
28 28 27 27 27 28 28 28 28 28 28 28 28 28 28 30 31 32 32 32 32 32 33 33 33 33 32 32 32 32 32 31 31 30 30 30 29 30 30 30 30 30 30
27 27 28 27 26 27 27 28 29 29 28 28 29 29 30 30 31 32 33 32 32 32 32 32 32 32 32 32 32 32 32 32 32 32 31 30 30 30 30 30 30 31 30
28 28 28 28 27 27 28 28 28 28 29 30 30 31 31 31 32 33 33 33 33 34 33 33 32 33 33 33 32 32 32 32 33 33 32 32 31 31 31 32 32 31 31
29 29 29 29 28 28 29 29 30 30 31 31 32 32 32 32 33 33 33 33 33 33 33 33 33 33 33 33 33 32 32 33 33 34 34 33 33 33 33 32 32 32 32
29 29 30 30 29 30 30 31 32 32 32 31 32 32 32 33 33 32 32 32 31 32 32 32 32 32 32 32 32 33 33 33 33 34 34 34 34 34 33 33 33 33 33
29 29 29 29 30 30 30 30 31 31 31 31 30 31 31 32 32 31 31 31 31 30 31 31 31 31 31 31 32 32 33 33 33 33 34 34 34 34 33 33 34 33 33
29 29 29 29 30 31 31 31 31 30 30 30 30 30 31 31 31 31 30 30 30 30 30 30 30 31 31 32 31 31 32 32 33 33 34 34 34 34 34 34 34 34 34
30 30 30 30 30 31 31 31 31 31 31 31 30 30 29 29 29 29 30 30 30 30 30 30 31 31 31 32 32 32 32 32 32 33 33 33 34 34 34 34 34 34 35
31 31 31 31 31 32 32 32 32 32 31 31 31 31 31 30 30 30 30 30 30 30 31 30 30 30 32 32 32 32 32 32 32 32 32 33 33 34 34 35 35 36 36
32 33 32 32 32 33 33 32 32 32 32 32 32 31 32 32 31 30 30 30 31 31 30 30 30 31 31 31 32 32 32 32 32 32 32 32 33 33 34 34 35 36 36
32 32 33 33 33 33 33 33 33 33 33 33 33 32 32 32 31 31 31 31 31 31 31 31 31 31 31 31 32 32 32 32 32 32 31 31 32 32 32 32 32 33 34
32 32 32 32 32 32 32 33 33 33 33 33 32 32 32 31 31 31 31 31 31 31 31 31 32 31 31 31 32 32 32 32 32 31 31 31 31 31 31 31 32 32 33

GEFSGL_500_meanwind_312.txt.gz
Wind_Speed
20 20 20 20 20 20 20 21 20 20 21 21 21 21 21 21 21 21 21 21 21 21 21 21 22 22 22 22 22 22 22 22 22 22 22 22 21 21 21 21 22 22 22
20 20 21 20 20 21 21 22 22 21 21 21 21 22 22 22 22 22 22 22 22 22 22 22 22 23 23 23 23 23 23 23 23 23 23 23 23 22 23 23 23 23 23
22 22 22 22 22 22 22 22 22 22 22 23 22 23 23 23 23 23 23 23 23 23 23 23 23 23 23 23 24 24 24 24 24 24 24 24 24 24 24 24 24 24 24
23 23 23 23 23 23 23 23 23 23 23 24 24 23 24 24 24 24 24 24 24 24 24 24 24 24 24 25 25 26 26 25 25 25 26 25 25 25 25 25 25 25 25
24 24 24 24 24 25 24 25 24 24 24 24 24 24 24 24 24 25 25 26 26 26 25 25 25 25 26 26 26 27 27 27 27 27 27 26 26 26 26 26 25 25 25
24 24 25 25 24 25 25 24 25 25 25 25 25 25 25 25 25 26 26 26 27 27 26 26 26 27 27 27 27 27 27 27 27 27 27 27 26 26 26 25 25 24 24
25 25 25 25 25 24 24 24 25 24 24 25 25 25 26 26 26 26 27 27 27 27 27 27 27 27 27 27 27 28 27 27 27 27 26 26 26 26 26 25 24 24 24
25 25 25 25 25 25 25 26 25 26 26 26 26 26 26 27 27 27 28 28 27 28 28 29 28 28 27 28 28 27 27 28 28 27 27 26 26 26 26 26 26 25 25
26 26 26 26 26 26 26 26 27 27 26 26 26 26 27 27 27 28 29 28 28 29 29 29 29 29 29 29 29 28 28 29 29 28 28 28 27 27 27 27 27 27 26
26 26 26 26 27 27 27 27 27 27 26 26 26 27 27 27 28 28 28 29 29 29 30 30 31 31 31 31 30 30 30 30 30 29 29 29 29 28 28 28 28 28 28
26 26 26 27 27 27 27 27 27 27 26 26 25 26 26 26 26 27 28 29 29 29 30 31 31 32 32 32 32 31 31 30 30 30 30 30 30 29 28 28 28 28 27
26 26 26 27 27 27 27 27 27 26 26 25 26 26 27 27 27 27 29 30 30 30 30 31 31 31 31 32 32 32 32 31 31 31 31 31 30 30 29 28 28 28 28
26 26 26 26 26 26 26 27 26 26 26 27 27 27 28 28 28 29 30 30 31 31 31 32 32 32 31 31 32 32 32 33 32 32 32 32 31 30 30 29 29 29 28
27 27 27 26 26 27 27 27 27 28 28 28 28 27 27 28 29 29 30 31 32 32 32 32 33 33 33 32 32 32 32 32 33 33 32 32 32 31 30 30 29 29 29
28 28 28 28 28 28 28 27 28 29 29 28 28 28 28 29 30 30 31 32 32 32 33 33 33 33 33 33 33 33 33 33 33 34 34 33 33 32 32 31 31 30 29
29 29 29 28 28 28 28 29 29 30 30 29 29 29 30 30 31 31 32 32 32 32 33 33 33 33 33 33 33 33 33 33 33 34 34 34 34 33 32 33 32 32 31
30 30 30 30 29 29 29 29 29 30 30 31 31 31 31 31 31 32 32 32 32 32 33 33 32 32 32 33 33 32 32 33 33 33 33 34 34 34 33 33 33 33 33
30 30 30 31 31 30 31 30 30 30 31 31 32 32 31 31 31 32 32 32 32 32 32 32 31 31 31 32 32 33 33 33 32 32 33 34 34 34 34 34 34 34 34
32 32 32 32 32 31 32 31 31 31 31 31 31 31 31 32 31 31 31 31 31 31 31 31 31 31 31 31 31 31 31 31 32 32 32 32 33 33 33 34 34 34 34
33 33 33 33 32 32 32 32 33 32 32 32 31 31 31 32 31 31 31 30 29 30 30 31 31 31 31 31 31 31 31 32 32 31 31 32 33 34 34 34 34 34 34
33 33 33 33 34 34 33 33 33 33 32 32 32 31 31 31 31 30 30 30 30 30 30 30 30 30 30 30 30 30 30 31 31 32 32 32 32 33 34 34 34 34 35
33 33 33 34 34 35 34 34 33 33 32 32 32 31 31 31 31 30 30 30 30 30 31 31 31 30 30 30 30 30 30 30 30 31 31 32 33 33 33 34 34 34 34
33 33 33 34 35 35 34 34 33 33 32 32 32 32 32 31 31 31 31 31 31 31 31 31 31 31 31 31 31 31 31 30 31 31 31 32 32 33 33 33 33 33 34
34 34 34 35 34 34 34 34 34 33 34 34 33 33 33 33 33 33 33 33 33 33 33 32 32 31 31 32 32 32 33 32 32 32 32 32 32 32 32 32 32 32 32
35 35 34 34 34 34 34 34 34 34 34 34 34 34 34 34 34 34 34 34 34 34 34 33 33 33 32 32 32 32 33 33 32 33 33 33 33 33 33 33 33 32 33
36 35 35 34 34 34 34 35 35 35 35 35 35 35 35 35 36 35 35 35 35 35 34 34 34 34 33 33 33 33 33 33 33 33 33 34 34 33 33 33 33 33 33

GEFSGL_500_meanwind_318.txt.gz
Wind_Speed
19 19 20 20 19 19 19 18 18 17 17 16 17 17 18 18 19 19 19 19 19 20 20 20 20 20 20 20 20 21 21 21 20 21 21 21 21 22 21 22 22 21 21
21 21 21 21 20 21 20 19 19 19 18 18 17 18 19 19 20 20 20 20 20 21 21 21 21 21 21 21 21 21 22 22 22 22 22 23 23 23 23 23 23 23 23
22 22 22 22 22 21 21 21 20 20 20 20 19 19 20 20 21 21 21 21 21 21 21 22 23 22 22 22 22 22 22 23 23 24 24 24 24 25 25 24 24 24 24
23 23 23 23 23 22 22 22 22 22 22 22 21 21 21 21 22 22 22 21 21 21 22 22 23 23 24 24 23 23 23 24 24 25 25 25 25 25 25 25 24 24 24
23 24 24 24 24 24 24 24 24 23 23 22 22 22 22 22 22 22 22 22 22 22 23 23 23 24 25 25 24 25 25 25 26 26 26 26 26 26 25 25 25 25 25
24 24 25 25 25 24 24 24 24 23 23 23 23 23 22 23 23 23 23 23 24 24 24 24 24 25 25 25 26 26 27 27 27 27 27 27 27 26 26 26 26 26 25
24 25 26 26 25 25 24 24 25 24 23 23 23 23 23 24 24 24 24 24 25 25 25 24 25 25 25 25 26 27 28 28 28 28 28 28 28 27 27 27 27 26 26
24 24 25 25 25 25 25 25 25 24 24 23 23 24 24 24 25 25 24 25 25 26 26 25 26 26 26 26 26 27 28 28 28 28 29 29 30 29 29 28 28 28 27
24 24 24 24 25 25 25 25 25 25 24 24 24 24 25 25 25 25 26 26 26 26 27 27 27 27 27 27 28 28 29 29 30 30 30 29 29 29 30 29 29 29 28
24 24 24 24 24 24 25 25 25 25 25 25 25 25 25 26 26 27 26 27 27 27 27 27 28 29 29 29 29 29 30 30 31 30 30 30 30 30 30 30 30 29 29
24 24 24 25 25 25 25 25 25 25 25 25 25 25 25 26 26 27 27 27 27 27 28 28 29 29 30 30 30 31 31 31 31 31 31 31 31 30 30 30 30 29 29
24 24 25 25 25 25 25 25 25 26 25 25 25 25 26 27 27 27 28 28 28 28 29 30 30 30 31 31 31 32 32 32 32 32 32 32 31 31 31 31 30 29 29
25 25 26 26 25 26 26 26 26 27 27 27 26 26 27 27 27 27 27 28 29 29 30 30 30 31 31 31 32 32 32 31 31 32 32 31 31 31 31 30 30 30 30
26 27 27 27 26 27 27 28 28 28 28 28 27 26 27 27 27 28 28 28 29 30 30 30 30 31 31 32 32 32 32 31 31 31 31 31 31 31 31 31 30 30 30
28 28 28 28 27 28 28 28 28 29 29 29 28 28 27 27 27 28 28 29 29 30 30 30 30 30 31 31 31 31 32 32 32 31 31 31 30 31 32 32 32 31 30
30 30 29 29 29 30 30 29 29 29 29 29 29 29 29 28 29 28 29 29 29 30 30 30 31 31 31 31 31 31 31 31 31 31 31 31 30 30 31 32 32 32 32
30 30 30 30 29 30 31 31 31 31 30 30 29 29 29 29 28 28 28 29 29 30 31 31 31 31 31 31 31 30 30 30 30 30 30 30 30 30 31 32 33 33 33
31 30 30 30 30 30 31 31 31 30 30 30 30 30 30 29 29 28 29 29 30 31 31 31 31 31 30 30 30 30 30 30 29 29 30 31 31 32 32 33 34 35 34
31 31 30 30 30 30 31 31 31 31 31 31 31 31 30 30 30 30 30 31 31 31 31 31 31 31 31 31 30 30 30 30 30 30 30 30 31 32 33 34 35 35 35
33 32 31 30 30 30 30 31 32 32 32 32 32 31 31 31 31 31 31 31 31 31 31 32 32 32 32 31 31 31 31 31 31 31 31 32 32 32 32 33 34 34 35
32 32 32 32 31 31 31 31 31 32 32 32 32 32 32 32 33 32 32 32 32 32 32 32 32 33 33 33 32 32 32 32 32 32 32 32 33 33 33 33 34 34 34
31 31 32 32 32 32 32 31 31 32 32 33 33 33 33 34 34 33 33 33 33 33 33 33 33 33 32 32 32 32 31 31 31 32 32 32 33 33 33 33 33 33 34
31 31 32 32 32 32 32 32 33 33 33 33 34 34 35 34 34 34 34 34 34 34 34 34 34 34 33 32 32 32 31 31 32 32 33 33 33 34 34 33 33 33 33
31 31 32 32 33 33 33 34 34 34 35 35 34 34 34 34 34 34 34 34 34 34 34 34 34 34 34 33 33 33 33 33 33 33 33 34 34 34 34 34 33 33 34
32 32 33 33 34 34 35 35 35 35 35 34 34 34 34 34 34 34 35 35 34 34 35 34 34 34 35 35 35 35 35 34 34 34 34 34 34 34 34 34 34 34 34
33 34 34 35 35 35 35 35 35 34 34 34 34 34 35 35 35 35 35 36 36 35 35 35 35 35 35 35 35 36 36 36 35 35 34 34 34 34 34 34 34 34 34

GEFSGL_500_meanwind_324.txt.gz
Wind_Speed
19 19 20 20 20 21 21 21 21 20 20 20 20 20 20 20 19 19 19 19 19 19 19 19 19 20 19 19 20 20 21 21 21 21 21 21 22 22 22 22 22 22 22
21 21 22 22 22 23 23 23 22 22 22 21 21 21 22 21 21 20 20 20 20 20 20 20 20 20 20 20 20 21 22 22 22 22 23 23 23 23 23 23 23 23 23
23 23 23 24 24 24 24 24 24 24 23 23 23 23 22 22 22 22 21 21 21 21 21 21 21 21 21 21 21 22 23 23 23 23 24 24 23 24 24 24 24 24 25
24 24 24 24 25 25 25 25 25 24 24 24 24 24 23 23 23 22 22 22 22 23 23 22 22 22 22 22 22 22 23 23 23 23 24 24 24 24 25 25 25 25 25
25 25 25 25 25 25 25 25 25 25 24 24 24 24 24 24 24 23 23 23 23 24 24 23 23 23 23 23 23 23 23 23 23 24 24 24 25 25 26 26 26 26 26
26 26 25 25 25 25 26 26 25 25 25 25 24 24 24 25 25 24 24 24 24 24 24 24 24 24 23 23 24 24 25 25 25 25 25 25 26 26 26 26 26 26 26
26 26 25 25 25 25 26 26 26 25 25 25 24 24 23 24 25 25 25 24 24 24 24 24 24 25 25 25 25 25 25 25 26 26 26 26 26 27 27 27 27 27 28
25 25 25 25 25 25 25 26 26 25 25 25 24 24 24 25 26 26 25 25 25 25 25 25 26 26 26 26 26 26 26 27 27 27 28 28 28 29 28 29 29 29 29
26 26 25 25 25 25 25 25 25 25 25 25 25 25 25 26 26 26 26 26 26 26 26 27 27 27 27 27 27 27 27 27 28 28 29 29 30 30 30 30 30 30 30
26 26 26 25 25 25 24 24 25 25 26 26 26 26 26 27 27 26 26 27 27 27 28 28 28 28 28 28 28 28 28 28 29 29 30 30 30 30 30 31 30 31 31
26 26 26 26 26 26 26 25 25 25 26 26 26 26 26 26 26 27 27 27 28 28 28 28 29 29 29 29 29 29 29 30 30 31 31 31 31 30 30 31 31 30 30
27 27 26 26 26 26 26 26 26 26 26 26 26 26 26 27 27 28 28 28 28 29 29 28 29 29 29 30 30 30 30 31 31 31 31 31 31 30 30 31 31 31 30
28 27 27 27 27 26 26 25 26 26 26 27 27 27 27 28 28 29 29 30 30 30 30 29 29 29 30 31 31 31 31 31 31 32 31 31 31 31 31 30 30 30 30
28 29 29 29 28 28 28 27 27 28 28 28 28 29 29 29 29 30 31 32 32 31 30 30 30 30 31 31 32 32 32 32 32 32 32 32 31 31 31 31 31 31 30
30 30 30 30 30 29 29 29 29 29 28 29 28 28 29 29 30 31 32 32 32 31 31 31 31 31 31 32 32 32 32 32 32 31 32 32 31 31 31 31 30 30 30
29 29 29 29 29 29 30 30 30 29 29 29 29 29 29 30 30 31 31 32 33 32 32 31 31 31 31 32 32 31 31 31 31 31 31 31 31 31 31 31 31 30 29
29 29 29 30 30 30 30 30 30 30 30 30 30 30 30 30 30 31 31 32 32 32 33 33 32 31 31 31 31 31 31 31 32 31 31 31 31 31 31 31 31 31 30
30 30 30 31 31 31 31 31 30 30 30 30 30 30 30 31 31 31 31 32 33 33 32 31 31 32 32 31 31 31 31 31 31 31 31 31 30 30 30 31 31 31 31
31 31 32 32 31 31 31 31 30 30 30 30 31 31 31 31 32 32 32 32 32 32 31 31 31 31 31 31 32 32 32 32 32 31 31 30 30 30 30 31 31 32 33
31 32 32 32 32 32 32 32 31 31 31 32 32 32 32 32 32 32 32 32 32 32 31 31 30 31 31 32 32 32 32 32 32 31 31 30 31 31 31 31 31 32 33
31 32 32 32 32 32 32 32 32 32 32 32 33 33 33 33 32 32 32 32 32 32 32 32 32 32 32 32 32 33 33 32 32 32 32 32 32 32 32 32 32 32 33
31 31 31 31 32 32 32 32 33 33 33 32 33 33 33 34 34 34 33 33 33 33 33 33 33 33 33 34 34 33 33 32 32 32 32 33 33 34 34 34 34 34 33
32 31 31 31 32 32 33 32 32 33 33 34 33 34 35 35 35 35 34 35 34 34 34 34 34 34 34 34 34 34 34 34 34 34 34 34 34 34 34 34 34 34 34
32 32 31 31 32 32 33 33 33 33 33 34 34 35 35 36 35 35 35 35 35 34 34 34 34 34 34 34 34 34 34 35 35 35 35 35 35 35 35 35 34 34 34
32 31 31 31 32 32 32 33 33 33 33 34 35 36 35 35 34 34 34 34 35 34 34 34 35 35 35 35 35 35 35 35 35 35 35 35 35 35 35 35 35 35 35
31 31 31 32 32 33 33 33 34 34 34 35 36 36 35 34 34 34 34 34 35 34 34 34 34 34 34 34 35 35 35 35 35 35 35 35 36 36 36 36 36 35 35

GEFSGL_500_meanwind_330.txt.gz
Wind_Speed
21 21 21 21 21 22 22 23 23 23 22 22 22 22 21 21 21 21 21 20 20 20 19 19 19 19 19 20 20 20 20 20 21 21 21 22 22 22 22 23 23 23 22
22 23 23 23 23 23 23 23 24 24 24 24 23 23 22 22 22 22 22 22 22 22 21 21 21 21 20 21 21 21 21 21 21 21 22 22 22 23 23 23 23 23 23
24 24 24 24 24 25 25 24 24 24 24 24 24 24 23 23 23 23 23 23 23 23 23 22 22 22 22 22 22 21 21 22 22 22 22 23 23 23 23 23 23 23 23
26 26 26 26 26 26 26 26 25 25 24 25 24 24 24 23 23 23 23 23 24 24 24 23 23 23 22 23 23 22 22 22 23 23 23 23 24 24 24 24 24 24 25
27 27 27 28 28 27 27 27 26 25 25 25 25 25 25 25 24 23 23 23 24 24 24 24 24 24 23 23 24 24 23 23 23 24 24 24 24 25 25 25 26 26 26
27 28 28 28 28 28 28 27 27 27 26 26 25 25 25 25 25 24 23 23 24 24 24 24 24 25 25 25 25 25 25 24 24 24 25 25 25 25 26 27 27 26 26
28 28 27 27 28 28 28 28 28 27 27 27 26 26 26 25 25 25 25 25 24 25 26 26 25 25 25 25 25 25 25 24 25 25 25 25 25 25 26 27 27 27 27
29 28 28 27 27 27 28 28 28 27 27 27 27 26 26 26 26 26 26 26 26 27 27 27 27 27 26 26 26 26 26 26 26 26 26 26 26 27 27 27 27 28 28
28 28 28 28 28 28 27 27 27 27 27 27 26 26 26 26 27 26 26 27 27 28 28 28 28 27 27 27 27 26 26 27 27 27 27 27 28 28 28 28 28 28 28
28 28 28 28 28 28 28 27 27 27 27 27 26 27 27 27 27 27 28 28 28 27 28 28 28 27 27 27 27 27 27 27 28 28 29 29 29 29 29 29 29 29 29
28 29 29 29 28 28 28 28 27 27 27 27 27 28 28 28 28 28 29 28 28 27 27 28 28 28 28 28 29 29 29 29 29 30 30 30 30 30 30 30 31 31 31
28 28 29 29 29 29 28 28 27 28 28 28 29 29 28 28 28 28 29 29 29 29 29 28 28 29 29 30 30 30 30 30 31 31 30 30 30 30 31 31 31 31 31
28 29 29 29 29 29 29 28 28 27 27 28 28 29 28 29 29 29 29 30 30 30 30 30 30 30 30 30 31 31 31 31 31 31 31 31 31 31 31 31 31 30 31
29 29 28 28 28 28 29 29 29 29 28 28 28 28 29 29 29 28 29 29 29 30 30 31 30 30 31 31 31 32 32 32 32 32 32 32 32 31 31 31 31 31 31
28 28 27 26 26 27 27 28 28 28 28 29 28 28 28 29 29 28 29 29 29 30 31 31 31 31 31 32 32 32 33 32 32 32 32 32 32 32 32 31 31 31 31
28 28 28 28 27 27 27 27 27 27 27 27 28 28 28 29 29 29 30 30 31 31 32 32 32 32 32 32 32 32 32 32 32 32 32 32 33 33 33 32 32 31 30
29 29 29 28 27 27 27 27 28 28 28 28 28 29 29 29 29 30 30 31 31 32 32 32 32 32 32 33 33 32 32 32 33 33 33 33 33 33 33 33 32 32 32
31 31 31 30 29 28 28 28 29 28 29 29 29 29 29 30 30 31 31 31 32 32 32 32 32 33 33 33 34 34 33 33 33 33 33 33 33 33 32 33 33 32 33
32 32 32 31 30 29 29 29 30 29 29 29 30 30 30 31 31 31 32 32 31 31 32 33 33 33 34 33 33 33 33 33 34 34 34 33 33 33 33 33 33 33 33
32 32 32 32 32 31 30 30 30 31 31 30 30 31 31 31 31 31 32 32 32 32 33 33 34 34 34 33 34 33 34 35 35 35 35 34 34 34 34 34 34 34 34
32 32 32 31 32 32 32 31 30 30 31 32 32 32 32 32 31 31 31 32 32 33 33 33 33 33 34 34 34 34 34 35 35 35 35 35 34 35 35 35 35 35 35
32 32 31 31 31 31 31 31 31 31 31 32 32 32 32 32 32 32 32 32 33 34 34 34 34 34 35 35 35 35 35 35 35 35 34 34 34 35 35 36 35 35 34
31 31 31 30 30 30 30 31 32 31 31 31 32 32 32 32 32 32 33 34 34 35 35 35 35 35 36 36 36 36 36 36 36 35 35 35 34 35 35 35 36 36 35
30 29 29 29 29 29 30 30 31 31 31 31 32 32 32 32 33 33 33 34 35 35 35 35 35 36 36 36 36 35 35 35 35 34 34 34 34 34 34 34 34 34 34
29 29 29 30 30 30 31 31 31 32 32 32 32 32 32 33 33 34 35 35 35 35 35 35 35 35 36 35 35 35 34 34 34 34 34 34 33 33 33 32 32 32 32
30 30 30 30 30 30 30 31 31 31 32 32 33 34 34 34 34 35 35 35 36 35 35 35 34 34 34 34 34 34 34 33 33 32 33 33 32 32 32 32 32 32 32

GEFSGL_500_meanwind_336.txt.gz
Wind_Speed
23 23 23 23 23 23 22 22 23 23 23 23 23 23 23 23 23 22 21 21 21 20 20 19 19 19 19 19 19 19 19 19 19 19 19 20 20 20 20 20 21 21 21
24 24 24 24 24 24 24 24 24 25 24 24 25 24 24 24 23 23 22 22 22 21 21 21 20 20 20 19 20 20 21 20 20 20 20 20 20 21 21 20 21 21 21
25 25 25 25 25 25 26 26 26 26 26 26 26 26 25 24 24 24 24 23 23 22 22 22 21 21 21 21 21 21 21 21 21 21 21 22 21 22 21 21 21 21 21
26 26 26 26 27 27 27 28 28 28 27 27 27 27 26 25 25 25 25 24 23 23 23 23 23 22 22 22 22 22 22 23 23 23 22 22 22 23 23 22 22 22 22
27 27 27 27 28 28 29 28 28 28 28 28 28 28 28 27 26 25 25 25 24 24 23 23 24 24 24 23 23 23 22 22 23 24 23 23 23 23 23 23 23 23 23
27 27 27 27 28 28 28 28 28 28 28 28 28 29 29 28 27 26 26 26 25 25 25 25 24 24 24 24 24 24 24 23 24 24 23 23 24 24 24 24 24 24 24
27 27 27 28 29 29 28 29 29 29 29 29 29 29 29 29 28 28 27 26 27 26 26 26 25 25 24 25 25 25 24 24 24 24 24 24 24 24 24 24 24 25 25
29 29 29 30 30 30 31 31 30 30 30 30 29 29 29 29 29 29 28 28 28 27 27 27 26 26 25 25 25 25 25 25 25 25 25 26 26 26 25 25 25 26 26
29 30 30 31 31 32 32 32 32 31 31 30 30 30 30 29 30 30 30 29 29 28 28 27 28 27 26 26 26 26 26 26 26 27 27 27 27 27 27 27 27 27 26
30 30 31 31 32 32 32 32 31 31 30 30 29 29 29 29 29 30 30 29 29 29 29 28 28 27 27 28 27 27 27 27 27 28 28 28 27 27 27 28 28 28 28
30 31 31 31 31 31 31 31 30 29 29 29 29 29 29 29 28 28 28 29 29 29 29 29 28 28 28 28 28 28 28 28 28 29 29 28 28 27 28 28 28 29 29
31 31 31 31 31 30 30 30 30 30 29 29 29 29 29 29 29 28 28 28 29 29 29 29 29 29 29 29 29 29 29 29 29 29 29 30 29 29 29 29 29 29 30
32 32 31 31 31 31 30 29 29 29 28 28 28 28 28 29 29 29 29 29 29 29 29 29 29 29 29 30 30 30 30 30 30 30 30 30 30 30 30 30 30 30 30
32 32 31 31 31 30 30 29 29 29 29 28 28 28 28 28 28 29 29 28 28 28 29 29 30 30 30 31 31 31 31 31 31 30 30 30 30 30 30 30 30 31 31
32 31 31 31 31 31 30 30 29 29 29 29 28 29 29 29 28 29 29 28 28 28 29 30 30 30 30 31 31 31 31 31 31 31 30 30 30 30 30 31 31 31 31
32 31 31 31 31 31 31 30 30 30 29 29 29 29 29 29 28 28 29 29 29 30 30 30 30 31 31 31 31 31 31 32 31 31 31 31 30 30 30 31 31 31 31
32 31 31 30 31 31 31 30 30 30 30 30 30 30 29 28 29 29 29 29 30 31 31 31 31 31 31 31 31 31 32 31 31 31 31 31 31 31 31 31 30 31 31
33 32 32 32 32 32 31 31 31 31 30 30 30 30 30 30 30 30 30 30 30 31 31 31 31 31 31 32 32 32 32 31 31 31 31 31 31 31 31 31 31 31 31
32 33 33 33 33 33 33 32 32 32 31 31 30 30 30 31 30 31 31 32 31 31 31 31 32 32 32 33 33 33 32 32 32 32 32 32 32 32 32 31 31 32 32
33 33 33 33 33 33 33 32 32 31 31 31 32 32 32 32 32 32 32 32 32 32 32 32 32 33 33 33 34 33 33 33 33 33 33 33 33 32 33 33 33 32 32
34 34 33 32 32 33 33 33 32 32 32 32 32 32 32 32 32 32 32 32 32 32 33 33 33 33 33 33 34 34 34 33 33 33 33 33 33 33 33 33 33 33 33
35 34 33 32 32 31 31 31 30 31 31 32 32 32 32 32 32 33 33 33 33 32 33 34 34 34 34 34 35 35 34 34 34 34 34 33 33 33 33 33 33 33 33
35 34 34 33 32 31 30 31 30 30 30 30 30 31 32 32 32 33 33 33 33 33 33 33 34 34 34 35 36 36 36 35 34 34 33 33 33 33 33 32 32 32 32
33 33 33 33 32 31 31 31 30 30 30 30 30 30 30 30 31 32 32 33 33 34 34 34 34 35 36 36 36 35 35 35 35 34 34 33 33 33 32 32 31 31 31
32 32 33 32 32 31 31 30 30 30 30 30 30 31 31 30 30 31 32 33 33 34 33 33 34 34 34 34 34 35 35 35 34 34 34 34 34 33 32 32 31 31 31
33 33 32 30 30 30 30 30 29 29 29 29 30 30 30 30 31 31 31 31 31 31 31 31 31 31 31 31 32 32 32 32 33 33 33 33 33 32 31 31 31 31 32

GEFSGL_500_meanwind_342.txt.gz
Wind_Speed
20 21 22 22 23 23 23 23 23 23 22 22 22 22 22 22 22 22 22 21 21 21 21 20 20 19 19 18 18 18 17 17 17 17 17 18 18 18 19 20 21 21 20
23 23 23 23 24 24 24 24 24 24 24 24 25 24 24 24 24 24 23 23 23 23 22 22 21 20 20 19 19 18 18 18 18 18 18 18 18 19 20 20 20 21 21
24 25 25 25 25 25 25 25 26 26 25 25 26 26 26 26 26 26 25 25 25 24 23 22 21 21 21 20 19 19 19 19 19 20 20 20 20 21 21 21 21 21 22
26 26 26 26 26 26 26 26 26 27 27 26 26 26 27 27 27 27 26 26 26 25 24 23 22 22 21 21 21 20 20 20 21 21 22 22 22 22 22 22 22 23 23
27 27 26 27 27 27 27 27 27 27 27 28 27 28 28 28 28 28 27 27 27 26 25 24 23 23 23 22 22 22 22 22 22 22 23 23 23 23 23 23 23 22 22
28 27 27 27 28 28 28 28 28 29 29 29 29 29 29 28 28 28 28 27 27 27 26 26 25 25 25 24 24 24 24 23 23 23 23 23 23 23 23 23 23 23 22
28 28 28 29 29 28 29 30 30 30 30 30 30 30 30 30 29 28 28 28 28 28 28 27 27 27 27 27 26 25 25 25 25 23 23 23 24 24 24 24 24 24 23
29 29 30 30 30 29 29 30 31 31 31 30 31 30 30 30 30 30 29 29 28 28 27 27 27 27 28 28 28 27 26 26 25 25 25 24 25 26 26 25 25 25 24
30 31 31 30 30 30 30 31 31 31 31 31 32 31 31 31 30 30 30 30 30 29 28 28 28 28 28 28 28 28 27 27 26 26 26 26 26 26 27 27 26 26 26
31 31 31 31 31 31 31 31 31 31 32 32 31 32 31 31 30 31 31 30 30 30 29 29 28 28 28 28 28 28 28 27 27 27 27 27 27 27 27 27 27 27 27
31 31 31 31 31 31 32 32 31 31 31 31 32 32 31 31 30 30 30 30 30 29 30 30 29 28 28 28 28 27 27 28 28 27 27 27 27 27 27 27 27 28 28
31 31 31 31 32 32 32 32 31 31 31 31 31 31 30 30 30 30 30 30 29 29 29 29 29 29 28 29 29 29 29 28 28 28 27 27 27 27 27 27 27 27 27
31 31 31 31 31 32 31 31 31 30 30 30 30 30 30 30 30 30 30 30 30 29 29 28 29 29 29 29 30 30 30 29 29 29 28 28 28 28 28 28 27 27 27
32 31 31 31 31 31 30 31 31 30 30 30 29 29 29 30 30 30 30 30 30 30 30 29 29 29 29 29 30 31 31 30 29 29 29 29 29 29 29 29 28 28 28
32 32 32 32 31 31 31 31 32 31 31 29 29 29 29 29 30 30 30 30 30 31 30 30 29 29 29 30 31 31 31 30 30 29 29 29 29 29 29 29 29 29 29
32 32 32 32 31 31 31 32 31 32 31 30 30 30 29 29 29 29 30 30 30 30 31 30 29 29 30 31 32 31 31 31 31 30 30 30 30 30 30 30 30 30 30
32 32 31 31 31 30 31 31 31 31 31 31 31 30 30 29 29 29 29 30 30 30 30 30 30 30 30 31 32 31 31 32 31 31 31 31 32 31 31 31 31 30 30
33 32 32 32 31 31 31 30 30 30 31 31 31 31 30 30 29 30 30 30 30 31 30 30 31 31 31 31 31 31 31 32 32 32 32 32 32 32 32 32 31 31 31
33 32 32 33 33 33 32 31 31 31 31 31 31 30 30 30 29 29 29 30 29 30 30 31 31 31 31 31 32 32 32 32 32 33 33 33 33 33 32 32 32 32 32
33 33 33 33 33 33 33 33 33 32 32 32 32 30 30 30 30 29 30 30 30 30 30 31 31 32 32 32 32 32 32 32 32 32 33 34 34 34 33 33 32 32 33
32 33 33 33 33 33 33 33 33 33 33 32 32 31 31 31 31 30 30 30 30 30 31 32 32 32 33 32 32 32 32 32 32 32 33 34 34 34 34 34 33 33 33
33 33 33 33 33 32 32 32 32 32 32 32 32 32 32 31 31 30 30 30 30 31 31 31 32 33 33 32 33 33 33 33 33 34 33 34 34 34 34 34 33 33 33
32 31 31 32 32 32 31 31 31 31 31 32 32 31 31 31 31 31 31 31 31 32 32 32 32 32 32 32 32 33 33 33 33 33 33 33 34 33 33 34 34 34 33
31 31 31 31 31 31 30 30 31 31 31 31 31 31 31 31 32 32 32 33 32 32 32 32 32 32 32 32 32 32 32 32 33 33 33 33 33 34 34 34 34 33 32
31 31 32 32 31 31 30 30 31 31 30 30 30 30 30 31 32 32 32 32 32 31 32 32 32 32 32 32 32 32 32 32 32 32 32 32 33 33 34 33 33 33 32
32 32 31 31 30 30 29 30 30 30 29 29 29 29 29 29 30 30 30 30 30 30 29 30 31 30 30 30 30 30 30 30 30 30 31 31 32 32 32 32 32 32 32

GEFSGL_500_meanwind_348.txt.gz
Wind_Speed
21 21 21 21 21 21 21 22 23 24 24 25 25 25 26 25 26 26 25 25 25 24 23 22 22 22 21 21 21 21 20 20 19 18 19 19 20 20 20 20 20 20 20
23 23 23 23 23 23 23 23 24 25 26 26 27 28 28 28 28 28 27 27 26 26 25 25 24 24 23 23 23 23 22 21 21 20 20 21 21 21 21 21 22 22 22
25 24 24 25 25 25 25 26 26 27 27 28 28 29 29 29 30 29 29 28 28 28 27 27 27 26 25 25 24 24 24 23 23 22 22 22 22 22 22 22 23 23 22
26 27 27 27 28 28 28 28 29 29 29 29 29 29 30 31 31 30 30 29 29 29 28 29 28 27 27 27 26 25 25 24 24 24 24 23 23 23 23 23 23 23 23
28 29 29 30 30 30 31 31 31 31 30 30 30 30 30 30 30 30 30 30 29 29 29 29 28 28 27 27 27 27 26 26 25 25 25 24 24 24 23 23 23 23 23
30 31 31 32 32 32 33 33 33 33 32 32 31 31 31 31 31 31 31 31 30 30 30 29 29 28 28 28 28 28 28 27 27 27 26 25 25 25 24 24 24 24 24
32 32 33 33 33 33 34 34 34 34 33 33 32 32 32 32 32 32 31 31 31 30 30 29 29 28 29 29 29 29 29 28 28 27 26 26 25 25 25 24 25 25 25
32 33 34 34 33 34 34 34 33 33 34 34 34 34 34 33 33 32 31 31 30 30 30 29 29 30 30 29 29 29 29 29 28 28 28 27 27 26 25 25 26 26 25
33 33 34 34 34 34 35 35 34 34 34 34 34 34 34 34 33 32 31 31 30 30 30 30 31 30 30 30 29 29 29 29 29 29 29 28 28 28 28 27 26 25 25
34 34 34 35 35 35 35 35 35 35 34 34 34 34 34 33 33 33 33 32 31 31 31 31 31 31 30 30 30 30 30 29 29 29 29 29 29 29 29 28 27 27 26
34 34 35 35 35 35 35 35 34 34 35 35 34 34 34 33 33 33 33 33 33 33 32 32 32 32 31 30 31 31 30 30 30 30 30 30 30 29 29 28 28 28 27
34 35 35 35 35 34 34 34 34 34 34 33 32 32 33 33 33 33 33 33 33 33 33 33 33 33 32 31 31 31 31 31 31 31 31 30 30 29 29 28 27 28 28
34 34 34 34 35 34 35 35 34 34 34 33 33 33 32 33 34 34 34 34 33 34 34 33 33 33 33 32 31 31 32 32 31 31 30 31 30 30 30 29 29 29 29
34 34 33 34 35 35 36 36 35 34 33 33 33 34 33 33 34 34 34 34 33 33 32 33 33 32 32 32 32 32 32 31 31 31 31 31 32 32 31 30 30 29 30
33 33 34 35 35 36 36 36 35 34 34 34 34 34 35 34 34 34 34 34 33 32 32 32 32 31 31 31 32 31 31 30 31 31 32 32 32 33 33 33 32 31 30
33 33 34 34 35 35 35 35 35 34 34 34 35 35 34 34 34 34 34 33 33 32 32 32 32 31 31 31 32 31 31 31 31 32 31 32 32 33 33 33 33 32 32
33 33 33 33 33 33 34 35 35 35 35 35 35 35 35 35 34 34 33 33 33 32 32 32 32 32 32 31 31 31 32 32 32 32 31 32 33 33 33 32 32 33 33
32 32 32 32 32 33 34 34 34 34 35 35 35 34 35 35 34 34 33 33 32 32 32 31 31 31 31 31 31 31 32 32 32 32 32 32 33 33 33 32 32 33 34
32 33 32 32 32 33 33 32 32 33 34 33 33 33 34 34 34 33 32 32 31 30 30 30 30 31 31 31 32 32 32 32 32 32 32 32 32 33 33 32 32 32 32
33 33 33 33 33 33 31 31 31 31 31 32 32 32 31 32 32 31 30 31 31 31 30 30 30 31 31 31 31 32 32 31 31 31 31 32 32 32 32 32 32 32 32
33 33 33 33 33 32 31 30 29 29 30 30 31 31 31 30 30 29 29 28 29 29 30 30 30 30 30 30 31 32 32 32 32 31 32 32 32 33 33 32 32 32 33
34 32 32 32 32 31 30 29 28 28 29 29 29 29 29 29 29 29 29 28 28 29 30 30 31 32 31 31 31 32 32 32 32 32 32 32 33 33 34 33 32 32 33
33 31 31 31 31 30 29 29 29 29 28 28 27 27 27 27 27 28 28 29 29 30 30 31 31 31 31 31 32 32 32 32 32 32 32 32 32 33 32 33 33 33 33
31 31 30 30 30 29 29 29 29 29 28 28 28 28 27 27 27 28 28 28 28 29 29 30 30 30 30 31 31 32 32 32 32 32 32 32 31 31 32 32 32 33 33
31 31 30 30 30 30 29 29 29 29 29 30 29 29 28 28 28 28 28 28 28 28 29 29 29 30 30 30 30 30 30 30 30 30 30 30 30 31 32 32 32 32 32
29 29 29 29 30 30 30 30 30 30 30 29 29 29 28 27 28 28 27 28 28 28 27 27 27 27 28 28 29 29 29 29 29 29 29 29 28 29 30 30 31 31 31

GEFSGL_500_meanwind_354.txt.gz
Wind_Speed
22 23 23 24 23 23 23 23 23 23 23 23 24 24 24 24 25 25 25 25 25 26 26 26 26 26 26 25 25 24 24 23 23 22 22 21 21 21 21 21 21 21 21
24 25 25 26 26 26 26 26 25 25 26 26 26 26 26 27 27 27 27 27 27 27 27 27 27 27 27 27 27 27 26 26 25 25 24 23 23 22 22 22 22 22 22
26 26 27 27 28 28 28 28 28 28 28 29 28 28 29 28 28 28 28 29 29 28 28 29 29 28 28 29 29 28 28 28 28 27 26 25 24 24 24 24 24 24 24
28 28 28 29 29 30 30 30 31 31 31 31 31 31 30 30 30 30 29 29 30 30 30 30 30 30 30 30 30 30 30 30 29 29 28 27 26 25 25 26 25 25 24
29 30 30 30 31 31 32 32 32 33 33 33 33 33 32 31 31 31 30 30 31 31 31 31 31 31 30 30 30 30 30 30 30 30 29 29 28 27 26 26 26 25 25
30 31 31 31 32 32 33 33 33 34 34 34 34 34 33 33 33 33 32 32 32 31 31 31 30 31 30 30 30 30 31 30 30 30 29 28 28 27 27 27 26 26 26
31 32 32 32 33 33 34 34 34 34 35 35 34 34 34 34 35 35 34 33 32 31 31 31 30 30 30 30 30 31 30 30 30 30 30 29 28 28 28 28 27 27 26
32 32 33 33 34 35 35 35 36 35 36 36 35 36 36 35 36 36 35 34 33 31 31 31 31 31 31 31 30 31 31 30 30 30 31 31 30 29 28 28 28 28 28
33 33 33 34 35 35 36 36 37 36 36 36 36 36 37 36 35 35 34 34 34 33 33 33 33 33 32 32 32 32 32 31 30 30 31 31 31 30 29 29 29 28 28
34 34 34 35 35 36 37 37 37 37 37 37 37 37 37 36 35 35 34 34 34 33 34 34 34 33 33 33 33 32 32 32 32 32 32 31 30 30 29 29 29 29 29
34 35 35 35 36 36 37 37 38 38 38 38 37 37 37 36 35 35 35 35 35 34 34 35 34 35 34 34 34 34 33 33 33 33 33 32 31 30 30 29 29 29 29
34 35 35 35 36 37 38 38 38 38 38 38 38 38 37 35 35 35 36 36 36 36 36 36 36 36 35 35 36 35 34 34 34 34 33 33 32 31 31 30 30 30 30
34 35 34 35 35 36 36 37 38 38 38 38 38 38 37 36 36 35 35 36 36 36 36 37 36 36 36 36 35 35 35 35 34 34 33 33 32 32 32 31 31 31 31
33 33 34 34 35 35 36 36 36 36 36 37 38 37 36 35 35 35 35 35 36 37 37 37 36 36 36 36 36 35 35 35 34 34 34 33 33 32 32 32 32 32 32
34 34 34 34 34 35 35 35 35 35 36 36 36 35 35 34 34 35 35 35 36 36 36 36 36 36 36 36 35 34 34 34 34 34 33 34 33 33 33 33 32 32 32
35 35 35 34 35 36 36 35 34 34 33 33 33 34 34 33 33 34 35 36 36 36 35 36 36 36 35 34 33 33 34 34 34 34 33 33 33 33 33 32 32 32 32
36 36 35 35 36 35 35 34 32 32 31 31 31 32 33 33 33 34 35 34 35 34 34 34 34 34 33 33 33 33 33 33 33 33 33 32 33 33 33 33 32 32 31
36 35 34 34 35 35 34 33 32 31 30 30 30 31 32 33 33 33 33 33 33 34 34 34 34 34 33 33 32 32 32 32 32 32 32 32 32 32 33 33 32 32 32
34 34 34 34 34 33 33 32 31 30 30 30 31 31 32 32 33 33 33 32 32 33 34 34 33 33 33 33 33 32 32 32 32 32 31 32 31 32 32 32 32 32 32
34 34 34 33 32 32 31 31 31 31 31 31 31 32 32 32 32 32 32 32 31 31 31 32 32 32 31 32 32 32 32 32 31 31 31 31 31 31 31 32 32 32 32
34 34 33 32 31 31 31 31 31 32 31 31 31 31 32 32 32 31 31 30 30 30 30 31 31 30 30 30 30 30 31 31 31 31 31 31 31 30 31 31 31 31 32
32 32 31 30 30 30 31 32 32 32 32 31 30 31 31 31 31 30 29 29 29 29 29 29 29 29 29 29 29 29 30 31 31 31 31 31 31 31 31 31 31 32 32
30 30 29 29 29 30 30 30 31 31 30 30 30 30 30 30 30 29 28 28 29 29 29 29 28 28 28 28 28 28 28 29 30 30 30 31 31 32 32 32 32 32 32
30 29 28 28 28 28 29 28 29 29 29 30 30 29 29 28 28 28 28 28 29 29 29 29 29 29 28 27 27 28 28 29 29 30 30 30 31 32 32 32 32 32 32
30 30 29 28 27 27 27 27 27 27 28 28 28 28 28 28 28 27 27 27 28 28 28 28 29 28 28 28 28 28 28 28 29 30 30 31 31 32 32 33 33 33 32
30 29 28 28 27 26 26 26 26 26 27 27 27 27 27 27 27 27 27 27 27 27 27 27 27 27 27 28 28 28 29 29 29 29 30 30 30 31 31 32 32 32 31

GEFSGL_500_meanwind_360.txt.gz
Wind_Speed
24 24 25 25 25 25 25 26 25 25 25 25 25 26 26 26 26 26 26 26 26 26 27 27 27 26 26 25 25 25 25 25 24 24 24 24 23 23 22 21 21 20 20
26 26 26 27 27 27 27 27 27 27 27 27 27 28 28 28 28 27 27 27 27 28 28 28 28 28 28 28 27 27 27 26 26 26 26 25 25 24 23 23 22 22 22
28 28 27 27 27 28 28 29 29 29 28 29 29 29 29 29 29 29 29 29 29 29 29 29 29 29 29 29 29 29 29 28 28 28 28 27 27 26 26 25 25 24 24
28 28 29 28 28 29 29 30 30 30 30 30 31 31 30 30 30 30 31 31 31 31 31 31 31 31 30 30 30 29 29 29 29 29 29 28 28 28 27 26 26 25 25
28 29 29 29 29 29 29 29 30 31 31 31 31 31 31 32 32 32 32 33 33 33 33 32 32 32 31 30 30 30 30 30 30 29 29 29 29 28 27 27 27 26 26
29 29 29 29 30 30 30 30 31 31 32 32 32 32 32 33 33 34 34 34 34 35 35 34 33 33 32 32 32 31 31 31 31 31 30 30 28 28 28 28 28 27 27
30 30 30 30 31 31 31 31 32 32 33 33 33 33 33 33 34 35 35 35 36 35 35 35 34 34 34 34 33 33 32 32 32 32 31 31 30 29 29 29 29 28 28
30 31 31 32 32 32 33 33 33 33 34 34 35 35 34 34 35 35 35 36 35 35 35 35 35 35 35 35 34 34 34 33 32 32 32 31 31 31 31 30 29 29 29
32 32 32 33 33 34 34 34 34 35 35 35 36 36 36 36 37 37 36 36 35 34 35 35 35 35 35 35 35 35 34 33 33 33 33 32 32 31 31 31 31 31 30
33 33 32 33 34 34 35 35 36 36 37 37 37 38 38 38 38 37 36 36 35 35 35 34 34 35 35 35 35 35 34 33 33 33 33 32 31 32 32 32 32 32 32
34 34 34 34 34 35 35 35 36 37 37 37 38 38 39 38 38 36 35 35 36 36 36 35 35 35 35 35 35 35 34 33 33 34 33 33 32 32 32 33 33 33 33
35 35 35 35 35 35 36 36 36 36 37 37 38 38 38 38 37 36 35 35 36 36 36 36 35 35 34 34 35 35 35 34 34 34 34 34 34 33 33 33 33 34 34
37 36 36 36 36 37 37 37 37 38 38 38 38 37 36 36 35 35 35 35 36 36 35 36 36 35 35 36 36 36 35 35 34 34 34 34 34 33 32 32 33 34 34
37 37 36 36 37 37 38 38 39 39 38 38 37 36 36 36 35 35 36 35 35 35 36 36 37 37 37 37 37 37 36 36 35 35 34 34 34 34 33 32 33 33 33
37 37 37 38 38 38 39 39 39 39 38 38 37 36 36 36 35 35 35 35 35 35 36 37 37 38 37 37 37 37 36 35 35 34 34 34 34 34 33 33 33 33 33
37 37 37 37 38 39 40 39 39 38 38 37 37 36 36 36 35 35 35 35 35 36 36 36 37 37 38 37 37 37 36 35 34 34 34 34 34 34 33 33 32 32 32
37 37 37 37 38 38 38 39 38 37 37 37 36 36 36 35 35 35 35 35 35 36 36 35 36 36 36 35 35 35 35 34 34 33 33 33 32 32 32 32 31 31 31
37 37 37 37 37 38 38 38 38 36 35 34 34 34 35 35 35 35 35 36 36 36 36 35 34 34 34 34 34 33 33 33 32 32 32 31 31 31 30 31 31 31 30
36 36 36 37 38 37 38 37 36 35 34 33 33 33 33 33 33 34 34 34 34 34 34 33 33 33 33 33 33 32 32 32 31 31 31 31 30 30 30 31 31 31 31
35 35 36 36 36 36 35 35 34 34 34 33 33 33 32 32 32 32 32 32 33 33 32 32 32 32 32 31 31 31 31 31 31 30 30 30 30 30 30 30 31 31 31
35 35 35 35 34 34 34 33 33 33 33 33 33 33 33 32 32 32 32 32 33 33 32 31 31 31 31 31 30 30 30 30 30 30 30 29 29 29 30 30 30 30 30
35 34 34 33 33 33 33 32 31 32 32 31 31 31 32 31 31 31 31 31 31 31 30 29 29 29 29 30 30 30 29 29 29 29 29 29 29 30 30 30 30 30 30
34 34 33 33 32 32 32 32 31 31 31 31 30 29 29 28 28 28 28 28 29 29 29 29 29 28 28 28 28 28 28 28 29 29 29 29 30 30 30 29 30 30 30
33 33 33 32 32 31 31 30 30 30 29 28 28 27 27 27 27 27 27 27 28 28 28 28 28 28 28 28 28 28 28 28 28 29 28 28 29 29 29 29 29 30 30
33 32 31 31 30 30 29 29 28 27 27 26 25 25 25 25 25 25 26 27 27 27 27 27 27 27 28 27 27 27 27 27 28 28 28 28 28 29 29 29 29 30 30
32 31 30 30 29 28 28 27 26 25 25 24 25 25 25 25 25 25 26 26 26 26 26 27 27 27 27 27 27 27 27 27 26 27 27 27 27 28 28 28 29 29 29

GEFSGL_500_meanwind_366.txt.gz
Wind_Speed
23 24 24 24 24 24 24 24 25 25 26 26 26 26 26 25 25 25 25 24 24 24 25 25 25 25 26 25 25 24 24 24 24 24 24 24 24 24 23 23 23 21 21
24 24 25 25 25 25 26 26 26 26 27 27 27 27 27 27 27 26 26 26 27 27 27 27 27 27 27 27 27 27 27 27 26 26 26 26 26 25 25 24 24 24 23
25 25 25 25 26 27 27 28 28 28 28 28 28 29 29 29 29 28 28 28 29 28 29 29 29 29 29 29 29 28 28 28 28 28 27 27 27 27 26 26 26 26 26
26 27 27 27 28 28 29 29 29 29 29 30 30 30 29 30 30 31 30 30 30 30 30 30 30 29 29 29 29 29 29 29 29 28 28 27 28 28 27 27 27 27 27
26 27 28 28 28 29 29 29 30 30 30 31 31 31 31 31 32 32 32 32 32 32 32 31 31 30 30 30 29 30 30 29 29 29 28 28 29 29 29 28 28 28 28
28 28 28 28 28 29 30 30 31 32 32 32 32 32 32 33 33 33 34 34 34 33 33 32 33 32 31 31 31 31 30 30 30 29 29 29 29 30 30 29 29 29 29
29 30 30 30 30 30 31 32 33 33 33 33 33 33 33 34 34 34 35 36 35 34 34 33 33 33 32 32 32 32 32 31 31 30 30 29 29 30 30 30 30 30 30
30 31 31 31 32 32 33 33 34 34 34 33 33 33 33 34 35 35 34 35 35 34 34 33 33 34 33 33 33 33 33 32 32 32 31 30 30 30 31 31 31 30 30
31 32 32 32 33 34 34 34 34 33 33 32 33 34 34 35 35 35 36 36 35 35 34 34 33 33 33 33 34 34 33 33 33 33 33 32 31 31 32 31 30 31 31
33 33 33 34 34 35 35 34 34 34 34 34 34 34 35 35 35 36 36 36 36 35 35 35 34 34 34 34 35 35 35 34 34 34 34 33 32 32 32 32 31 32 32
33 33 34 35 35 35 35 36 36 36 36 36 35 35 35 36 37 37 37 36 36 36 35 35 34 34 34 35 36 36 35 35 35 35 35 34 34 33 33 33 33 33 33
34 35 35 35 35 36 36 36 36 36 36 36 36 36 36 37 37 37 37 37 36 36 35 35 34 35 35 36 36 36 36 36 36 36 35 34 34 34 34 33 33 33 33
35 36 36 37 37 37 38 38 37 37 37 37 37 37 37 37 38 38 38 37 36 36 35 35 35 35 36 36 37 37 37 37 37 36 35 34 34 34 35 35 35 34 33
36 37 38 38 38 38 39 39 39 38 39 39 39 38 38 38 38 38 37 37 36 36 36 36 36 35 36 37 37 37 36 37 37 36 36 35 35 35 35 36 35 34 34
37 38 39 40 40 39 39 39 39 38 39 39 39 39 38 38 38 37 37 37 37 37 37 37 36 36 37 37 37 37 36 36 35 35 36 35 35 36 36 36 36 35 34
38 38 39 39 40 40 39 39 38 38 38 38 38 38 38 38 38 37 37 37 36 36 37 37 36 35 35 36 36 36 36 35 35 35 35 36 36 36 37 37 37 36 35
37 38 38 39 39 39 39 38 38 38 38 37 38 38 38 37 37 37 36 36 35 35 36 36 35 35 35 35 35 35 35 36 36 36 36 36 37 37 37 37 37 36 35
37 37 37 38 37 37 37 38 38 38 37 37 37 37 37 37 37 37 36 36 36 36 36 36 35 35 34 34 34 34 34 35 36 36 36 37 37 36 36 36 35 35 35
36 37 37 37 37 37 37 37 37 37 37 36 36 36 36 36 36 36 36 36 36 36 35 35 35 34 34 34 34 33 33 34 34 35 35 35 35 36 36 35 35 35 34
36 36 37 37 36 36 36 36 36 36 36 35 35 35 35 35 34 34 33 33 34 34 34 34 33 33 33 33 32 32 32 33 33 33 33 33 34 35 35 35 35 34 34
37 37 37 36 36 35 35 36 35 35 34 33 33 33 33 33 32 32 32 32 32 31 31 31 31 31 31 32 32 32 32 32 33 33 33 32 32 33 34 34 34 34 34
36 36 36 36 35 35 35 35 34 34 33 33 32 32 31 31 31 31 30 31 30 30 30 30 30 30 31 31 32 31 32 32 32 32 32 32 31 31 32 32 32 32 33
35 35 35 35 35 34 34 34 34 34 33 33 32 31 30 30 30 30 30 30 30 29 29 29 29 30 30 30 30 31 32 32 32 32 31 30 30 30 31 31 31 31 32
35 35 35 35 34 34 33 33 33 32 32 32 31 31 30 30 30 29 29 29 29 29 29 29 28 28 29 29 29 30 30 30 30 30 30 30 30 30 30 30 30 31 31
34 34 34 34 33 32 32 31 31 30 30 30 30 30 29 29 29 29 28 28 28 28 28 28 28 28 28 28 29 29 28 28 28 28 29 29 29 29 29 29 29 29 30
33 33 33 32 32 31 30 31 31 31 30 30 30 30 29 28 28 29 29 28 28 27 27 27 27 28 27 27 27 27 27 26 27 27 28 29 29 30 29 29 29 28 28

GEFSGL_500_meanwind_372.txt.gz
Wind_Speed
24 24 24 24 24 25 25 25 26 26 25 26 26 26 26 26 27 27 27 27 27 27 27 26 25 26 25 25 26 26 26 26 26 25 25 25 25 25 25 25 25 24 24
25 25 25 25 25 25 26 27 27 27 27 27 27 28 28 28 28 28 29 29 29 29 29 28 28 27 27 27 27 28 28 28 27 27 27 26 26 26 25 25 25 25 25
26 26 26 26 26 27 28 28 28 27 28 28 28 29 30 30 30 30 30 30 30 30 30 30 30 29 29 29 29 29 29 28 28 28 27 27 27 26 26 26 26 26 26
27 28 27 28 28 28 29 30 29 28 28 28 29 30 31 31 31 31 31 31 31 31 31 32 32 32 31 31 31 30 29 29 28 28 27 27 27 27 27 27 27 27 27
28 28 29 29 29 29 29 30 30 29 29 29 30 31 32 32 32 32 32 32 33 32 33 33 33 33 32 32 31 30 29 29 29 29 28 28 27 27 28 28 28 28 28
28 29 29 30 30 30 30 31 31 30 30 31 31 32 32 32 32 33 33 34 34 34 34 34 35 35 34 33 31 31 30 30 30 30 30 29 29 29 29 30 30 29 29
29 29 30 31 31 31 31 31 31 31 32 32 33 33 33 33 33 34 34 35 34 34 34 35 35 35 34 33 33 32 31 31 32 31 31 31 31 31 31 31 31 30 30
30 30 31 32 32 33 33 33 33 33 34 34 34 34 33 34 34 35 35 34 34 34 34 34 35 35 34 34 34 33 33 33 33 33 32 32 33 33 33 32 32 31 31
31 32 32 33 33 33 34 34 34 34 35 35 36 36 35 35 36 36 35 35 34 34 34 34 34 35 35 34 34 34 34 34 33 33 33 34 34 34 34 34 33 33 32
33 33 34 34 34 34 35 35 36 36 36 36 37 37 37 37 36 36 36 35 35 34 34 34 34 35 35 35 34 34 34 35 35 35 34 34 35 35 35 35 34 34 33
34 34 35 34 34 35 35 36 37 37 37 37 37 37 37 36 36 36 36 35 35 35 35 35 34 35 35 34 35 35 35 35 35 35 35 35 35 36 36 36 36 35 34
34 35 35 35 35 36 37 37 37 37 38 38 38 37 37 37 37 37 36 36 35 35 35 35 35 35 35 35 35 35 35 35 35 36 36 36 36 36 36 36 36 36 36
35 36 36 36 36 37 38 38 37 37 37 38 38 37 36 36 37 36 36 36 35 35 35 35 35 35 35 35 35 35 35 36 36 37 37 37 37 36 36 36 36 37 37
35 36 36 36 36 37 38 38 38 38 38 37 37 37 36 36 35 35 35 35 35 35 35 35 35 35 35 35 35 36 35 35 35 36 36 37 37 37 36 36 36 37 37
35 35 35 36 36 37 37 37 37 37 37 36 36 36 35 35 36 36 35 35 35 35 36 36 35 35 34 34 34 35 35 35 35 35 35 35 36 35 35 35 36 36 37
36 36 36 36 37 37 37 37 37 37 37 36 36 36 36 36 35 34 35 35 35 35 35 34 34 34 34 34 34 33 33 33 34 34 34 34 34 34 34 35 36 36 37
36 36 37 37 37 37 37 37 37 37 37 36 36 35 35 34 34 33 34 34 34 34 34 34 34 34 34 34 34 33 33 33 33 33 33 34 34 35 35 36 37 37 37
36 36 36 36 36 37 37 37 37 37 37 37 36 35 35 35 35 34 33 34 34 35 34 34 34 34 34 34 34 34 33 33 34 34 34 34 34 35 35 36 37 36 37
36 36 36 35 35 36 36 37 37 37 37 36 36 35 34 34 34 34 34 34 34 34 34 34 34 34 34 34 34 34 34 34 34 34 34 34 34 35 35 36 36 36 36
35 35 35 35 35 36 36 35 35 35 35 34 34 34 34 34 34 35 35 35 35 35 35 35 35 35 35 34 34 33 33 33 33 33 32 33 33 34 34 34 35 35 36
34 35 34 34 34 34 34 34 34 34 34 34 34 35 36 36 35 36 36 36 36 36 36 36 35 35 35 34 33 32 32 33 33 32 32 32 32 32 32 33 33 34 35
34 34 34 34 34 33 33 33 34 34 35 35 35 35 36 36 36 36 37 37 37 37 36 36 35 35 35 34 33 33 32 32 32 31 31 31 31 31 31 31 32 33 33
34 34 35 35 35 35 35 35 35 35 35 35 35 35 35 35 35 36 36 36 36 36 35 34 34 34 33 33 32 31 31 30 30 30 31 30 30 30 29 29 30 30 31
34 34 34 35 35 35 35 35 35 35 35 35 35 35 35 34 35 35 35 34 34 33 33 32 32 32 32 31 31 30 29 29 29 30 30 30 29 29 29 28 28 28 29
34 34 34 35 35 34 34 35 35 36 35 35 35 35 34 34 34 34 34 33 32 32 31 31 31 31 30 30 29 30 30 30 30 30 29 28 28 28 29 28 28 28 28
34 34 34 33 33 33 33 34 34 35 35 35 35 34 33 33 33 32 32 32 31 30 30 30 30 30 30 30 29 29 29 29 29 29 28 28 28 28 28 28 28 28 28

GEFSGL_500_meanwind_378.txt.gz
Wind_Speed
25 25 26 26 25 25 25 25 25 26 26 26 26 26 26 26 26 27 27 28 28 28 28 28 29 29 28 27 27 27 27 26 26 26 26 26 26 26 26 26 26 25 25
25 26 26 27 27 27 27 27 27 28 27 27 27 28 28 28 28 28 28 29 29 29 29 29 29 30 29 29 29 29 29 29 28 28 27 27 27 27 27 26 26 26 26
26 26 27 28 28 28 28 28 28 29 29 29 29 29 29 29 30 30 30 30 30 30 31 31 31 31 31 31 31 30 30 30 29 29 28 28 28 28 27 27 27 27 27
27 27 28 29 29 29 30 30 30 30 30 30 30 30 30 30 30 30 30 31 31 31 31 32 32 32 32 31 31 31 31 31 30 29 29 28 28 28 28 28 28 28 27
28 28 28 29 29 30 31 31 31 31 32 32 31 31 31 31 31 31 31 32 32 32 32 32 32 32 33 32 32 32 32 32 31 31 30 29 28 28 28 28 28 28 28
28 29 29 30 30 30 31 32 32 32 32 33 33 33 33 33 33 33 34 33 33 32 33 33 33 33 34 34 34 33 33 32 32 32 31 30 29 29 29 29 30 30 30
29 30 30 30 31 31 31 32 32 33 33 34 34 34 34 34 34 34 34 34 34 33 33 33 33 34 34 34 34 33 33 32 32 32 31 31 30 30 30 30 31 31 31
31 32 32 32 32 33 33 33 33 34 34 34 35 35 36 36 35 35 35 34 34 34 33 33 33 33 33 33 33 33 33 33 32 32 32 32 33 32 32 33 33 32 32
33 33 33 33 34 34 34 34 34 35 35 35 35 35 35 36 36 36 36 35 35 34 34 33 33 33 34 34 34 34 33 34 33 33 33 33 34 34 35 35 34 34 33
34 34 34 35 35 35 35 35 35 35 36 36 35 34 35 36 36 36 36 36 35 35 35 34 34 34 35 35 35 35 34 34 35 35 35 35 35 36 35 36 35 35 35
34 35 35 35 36 36 36 36 36 36 37 37 36 36 36 37 38 37 36 36 36 35 35 35 35 35 35 36 36 35 35 36 36 36 36 36 37 37 36 36 37 37 36
34 35 36 36 37 37 37 37 37 37 38 38 38 38 38 37 37 36 36 36 36 36 35 35 35 34 35 36 36 36 36 36 36 36 36 37 37 37 37 37 36 37 37
35 36 36 37 37 36 37 37 37 37 37 37 38 38 38 37 37 37 36 37 36 36 36 35 35 35 36 36 36 36 36 35 35 35 35 36 36 37 37 37 36 36 37
35 35 36 36 36 36 36 37 37 37 37 37 37 37 37 38 37 37 37 37 37 37 37 36 36 36 36 36 36 35 35 34 34 34 34 35 35 36 36 36 36 36 36
34 34 35 35 35 35 36 36 37 36 36 36 37 37 37 37 37 36 37 37 37 37 37 37 36 36 36 36 36 35 36 36 36 35 35 35 35 35 34 35 35 35 35
33 33 33 33 34 34 34 35 35 35 35 35 35 35 35 36 36 36 36 36 36 36 36 35 36 36 36 36 36 36 36 36 35 35 35 35 34 34 33 33 33 34 34
32 33 33 33 33 33 34 34 34 34 34 35 35 35 35 36 36 36 36 36 36 36 36 36 36 36 36 36 36 36 35 35 34 34 34 34 34 34 33 33 32 32 33
32 33 33 33 33 33 33 33 34 34 34 35 34 35 36 36 36 36 36 36 36 36 35 35 36 36 36 36 35 35 35 34 34 34 34 34 34 33 32 32 32 32 32
33 33 33 34 34 33 33 33 33 33 33 33 34 34 35 35 35 35 36 36 36 36 35 35 36 36 36 36 35 35 34 34 33 33 34 34 33 33 32 32 32 32 32
33 33 34 34 34 34 34 33 33 33 33 33 33 34 34 34 34 34 34 35 35 35 35 35 36 36 36 35 34 34 34 33 33 33 33 34 34 33 33 33 33 32 33
33 33 34 34 34 35 34 34 34 33 33 33 33 34 33 33 33 33 34 34 34 34 35 35 35 35 35 35 35 34 34 34 33 33 33 33 33 33 32 32 32 32 32
33 33 33 34 34 35 35 34 34 34 34 33 33 33 33 33 33 33 33 33 34 34 34 34 34 34 34 34 34 34 34 33 33 32 32 32 32 32 32 32 32 32 31
33 33 34 34 34 34 35 35 35 35 35 34 33 32 32 32 32 32 33 33 33 33 34 34 33 33 33 33 33 33 32 32 32 32 32 32 31 31 31 30 30 30 31
33 34 34 35 34 34 35 35 36 35 35 34 34 33 32 32 31 32 32 33 33 33 33 33 33 33 33 32 31 31 31 31 31 31 31 31 30 31 31 30 29 30 30
34 34 34 34 35 35 35 35 35 34 34 34 34 33 32 31 31 31 32 32 32 32 32 32 31 31 30 30 30 30 30 30 30 30 29 29 29 29 29 29 29 29 29
33 33 33 33 34 34 34 34 34 33 33 33 33 32 31 31 31 32 32 31 31 31 30 30 29 29 29 29 29 29 29 29 29 29 29 28 29 29 29 29 29 29 29